GFSSGP_sfc_30mbdewp_045.txt.gz
Dewpoint
44 44 43 32 19 18 18 21 47 47 47 48 55 56 56 57 55 50 64 65 66 68 69 69 69 69 69 69 69 68 67 66 64 64 64 63 62 61 61 60 59 59 57 57 56 55 55 55 56
37 35 33 26 9 10 14 33 46 47 48 47 48 55 55 56 60 62 63 65 66 68 68 69 69 69 69 68 68 67 66 64 64 63 62 61 60 60 59 60 60 59 57 56 56 56 56 56 57
40 34 18 10 8 8 14 42 46 46 48 46 47 50 54 55 60 62 64 65 65 66 68 69 69 69 68 68 67 66 66 64 63 62 60 59 60 60 60 62 61 59 57 57 56 56 56 56 54
28 19 14 8 11 14 16 35 42 43 44 46 49 50 51 52 57 63 66 66 64 66 68 68 68 68 68 68 67 66 65 63 62 61 60 60 60 61 61 62 61 59 58 57 56 56 56 53 50
24 21 7 7 9 13 35 36 42 45 45 45 44 47 48 55 64 65 66 67 66 66 67 66 66 67 68 67 66 65 64 63 62 62 62 61 60 60 61 62 61 60 59 57 57 57 55 51 49
24 15 9 8 11 30 45 48 48 46 46 44 44 46 49 58 64 65 66 65 66 65 64 64 64 67 67 67 66 65 64 63 62 62 62 61 61 61 61 61 61 61 60 58 56 55 53 50 48
19 13 12 9 10 33 45 49 49 48 45 41 47 50 51 58 63 63 64 63 63 64 63 63 66 65 66 65 65 64 64 63 62 62 61 61 61 61 61 61 61 61 59 57 54 53 52 50 46
16 12 9 9 10 39 47 49 48 48 45 46 46 50 49 60 62 59 61 62 63 63 63 64 64 64 64 64 63 63 62 62 61 60 59 59 59 60 59 59 59 59 57 54 50 48 49 50 48
18 12 10 10 34 41 46 43 51 48 50 48 53 53 59 57 61 59 59 60 62 62 64 63 62 63 63 63 63 62 61 59 59 58 58 58 59 59 60 56 57 56 54 51 49 47 48 50 50
15 12 12 19 40 40 42 41 46 46 45 51 57 60 57 55 58 58 56 55 58 61 62 62 63 61 60 60 61 61 60 58 58 57 58 57 57 59 56 55 55 54 53 51 49 48 51 49 47
12 11 13 22 38 40 39 39 41 41 37 42 50 54 58 55 56 58 54 55 59 60 59 61 62 59 56 58 58 59 58 57 57 57 57 58 59 59 56 55 56 55 55 54 51 48 46 44 45
11 12 13 32 39 39 38 42 39 38 38 48 54 57 58 58 57 58 56 56 59 60 57 57 56 54 55 57 57 57 58 59 61 63 62 61 60 60 59 57 56 52 50 47 47 43 42 42 39
12 11 14 34 37 37 41 40 39 38 43 45 49 51 56 57 56 57 58 58 59 56 55 54 55 54 55 56 59 61 61 62 63 61 61 60 59 57 55 50 49 48 46 45 42 39 40 38 37
18 12 14 20 28 33 38 41 36 38 44 43 46 48 52 56 55 57 55 53 53 54 53 54 56 56 61 61 61 61 62 61 60 60 59 58 57 52 49 48 47 46 43 42 38 38 36 36 35
20 15 17 21 29 32 38 38 36 41 40 49 52 55 55 53 57 54 54 49 51 52 52 54 57 61 59 57 57 58 59 59 58 59 57 56 51 49 49 47 45 44 43 38 38 35 34 33 34
24 13 15 22 27 34 31 27 33 42 50 52 54 53 51 45 46 48 48 48 50 51 52 55 60 58 57 56 57 57 57 57 58 56 54 52 50 49 47 44 42 43 41 39 37 35 35 34 35
18 12 17 20 22 33 30 25 29 40 47 47 46 46 43 39 45 46 48 49 50 51 55 59 58 56 56 56 56 56 55 55 55 52 49 48 48 47 45 42 40 42 39 37 36 36 36 35 35
15 14 15 17 21 29 25 24 28 36 43 44 44 43 41 38 43 46 47 50 52 56 58 57 57 56 56 56 56 56 55 53 53 49 47 47 47 46 43 43 40 39 38 36 36 37 38 36 36
17 17 15 18 19 21 24 23 28 30 36 37 38 39 37 35 41 44 47 51 56 58 58 57 56 56 56 55 54 53 51 51 48 46 47 47 47 43 44 43 41 38 37 35 39 37 36 36 36
21 20 20 20 14 10 14 20 24 27 33 35 34 32 32 33 39 41 45 54 57 58 58 57 56 56 57 55 53 52 49 48 45 45 46 47 45 41 39 38 37 37 36 38 38 37 36 37 36
24 24 22 22 26 18 9 11 15 23 27 35 35 35 34 36 39 43 47 57 58 58 58 57 57 56 57 56 53 52 49 47 46 46 46 46 41 39 39 38 37 37 38 37 37 38 37 36 37
24 25 26 22 22 16 23 15 20 19 22 31 35 35 37 37 44 45 47 57 58 58 59 58 57 57 57 55 53 51 47 46 46 46 47 42 41 40 38 37 36 38 39 37 39 39 37 36 33
21 25 24 25 24 24 23 21 21 24 21 24 28 35 38 39 46 47 49 55 58 58 58 58 57 57 57 56 53 49 47 46 46 46 45 42 41 40 39 40 40 37 36 35 33 32 33 34 33
26 21 26 32 30 20 20 18 24 21 23 28 27 32 37 42 46 48 51 55 58 58 58 58 57 56 55 52 50 47 46 45 46 46 44 43 43 40 38 35 33 33 32 32 32 32 32 33 34
27 25 23 19 22 21 25 23 23 26 27 30 29 31 38 43 46 50 53 54 56 56 57 58 57 53 50 48 47 47 44 43 43 43 41 37 36 35 32 31 31 31 31 30 31 31 32 32 34
24 27 19 20 22 24 24 22 23 28 30 31 33 35 38 44 50 53 54 54 55 56 56 55 51 48 47 46 47 45 40 38 38 39 35 35 33 32 31 30 30 29 30 31 31 32 34 35 35
27 24 29 26 31 27 19 17 27 29 30 33 35 38 44 46 47 51 52 53 53 53 52 49 46 46 46 47 45 41 39 39 36 35 34 33 31 31 30 29 28 29 30 32 35 34 34 33 34
24 25 22 21 13 12 16 18 25 27 30 34 35 41 44 45 45 47 48 49 50 49 48 47 46 46 47 44 41 38 38 36 35 34 33 32 30 29 29 27 28 29 32 32 32 33 32 32 32
23 22 22 19 23 17 17 13 22 26 27 33 37 42 44 44 44 44 45 47 47 47 47 46 47 46 44 41 40 39 36 35 35 34 32 30 30 29 27 27 28 29 31 31 31 30 32 31 30
22 22 26 18 18 22 21 18 19 23 27 29 35 41 43 43 44 43 42 44 46 46 47 47 45 43 42 40 38 37 36 36 33 31 30 30 29 29 27 28 28 30 30 30 29 30 31 31 30

GFSSGP_sfc_30mbdewp_048.txt.gz
Dewpoint
50 50 42 32 19 18 17 19 46 46 47 54 56 55 56 57 54 48 63 64 68 68 69 69 70 69 69 69 69 68 66 63 62 62 62 62 61 60 61 61 60 58 55 55 55 54 54 55 57
38 36 33 25 10 8 11 25 31 46 49 55 54 56 55 56 61 62 63 66 68 68 69 69 69 69 68 68 68 66 64 63 63 62 61 62 60 60 60 61 60 58 56 55 54 53 52 54 57
40 35 21 20 8 5 9 39 45 47 47 46 49 53 55 57 61 62 64 67 67 67 68 68 69 68 68 68 67 65 65 64 63 61 61 60 60 60 60 61 60 58 56 54 53 51 51 54 56
28 21 16 8 8 11 12 16 45 45 45 48 51 49 50 58 59 64 65 67 67 68 68 68 68 68 68 67 66 65 64 63 62 62 62 61 60 60 60 61 60 58 56 55 53 52 52 52 52
25 20 13 5 7 28 47 49 47 47 45 44 46 47 50 62 65 66 65 65 66 67 67 67 68 68 67 66 65 64 63 62 62 63 62 61 60 59 60 62 61 59 56 56 55 53 50 51 53
23 16 10 9 9 37 46 49 49 48 48 45 45 47 52 63 64 64 64 65 65 65 65 65 65 65 66 65 65 64 63 63 63 63 62 61 61 61 61 61 61 59 57 56 55 54 51 49 51
22 18 12 11 11 14 46 50 47 49 48 46 49 49 55 59 63 63 63 64 64 64 62 62 63 63 66 65 64 63 63 63 63 63 62 62 62 61 61 61 60 58 56 54 53 51 51 50 49
19 14 11 10 9 30 47 46 48 44 45 49 51 48 52 59 61 61 61 61 62 62 61 60 60 63 64 64 63 62 62 62 61 61 60 60 60 59 59 59 58 57 55 52 50 50 50 51 51
17 16 12 11 21 35 46 45 50 48 44 51 58 55 58 58 59 60 59 59 60 59 60 59 61 63 63 63 62 62 61 60 60 60 59 59 59 57 56 56 57 56 53 51 51 53 52 49 49
16 13 12 13 30 38 44 44 45 44 45 50 54 58 58 58 58 57 57 57 58 59 60 62 61 62 62 61 61 60 59 59 58 58 57 57 58 59 55 57 58 55 54 53 52 48 46 43 44
15 12 12 14 34 41 40 38 43 41 42 46 53 54 57 56 55 56 57 57 56 58 61 62 61 61 59 59 60 59 58 56 56 57 56 57 59 58 56 56 55 55 52 47 44 43 42 39 38
9 11 12 18 41 39 37 39 39 39 37 52 57 55 56 56 54 55 55 56 58 60 61 62 60 58 57 58 58 57 56 58 58 58 59 59 59 58 55 54 53 49 47 43 41 41 39 37 35
17 20 14 29 40 40 40 38 39 39 51 55 57 55 55 57 54 55 55 56 59 59 59 61 58 55 56 57 57 58 59 61 61 61 60 60 58 57 52 50 47 46 44 39 37 36 35 35 32
26 23 19 36 39 38 35 34 36 41 50 53 53 56 56 56 55 55 55 55 59 58 57 59 56 54 57 59 59 60 61 62 60 59 58 58 55 49 48 47 45 43 40 39 36 34 33 34 33
27 15 19 32 37 38 37 35 35 42 45 48 48 50 52 56 57 55 55 56 58 55 54 56 57 59 59 60 61 61 60 59 59 58 55 52 50 49 48 45 44 42 39 36 35 34 34 34 34
25 15 14 22 31 36 31 26 34 40 42 42 47 50 53 55 56 55 56 57 55 53 53 59 60 58 58 58 58 58 58 58 57 56 52 51 50 48 44 42 43 42 39 37 36 34 34 35 35
22 11 18 20 28 30 28 24 33 42 44 50 52 53 53 55 55 55 52 53 53 52 56 59 58 57 56 57 56 56 56 56 55 52 50 50 48 46 41 40 42 39 38 37 36 36 36 35 35
18 14 15 17 22 29 28 25 28 45 50 51 51 50 46 53 51 54 49 52 52 52 58 58 57 56 56 55 55 54 53 53 51 49 48 48 48 44 42 41 40 39 36 36 37 37 37 36 36
22 18 18 19 20 28 28 26 26 44 47 47 47 44 42 47 49 48 49 50 51 57 57 57 56 56 55 54 53 52 51 52 49 48 47 47 46 44 42 41 38 38 35 38 37 37 35 36 37
23 21 21 20 23 23 25 23 25 41 45 45 45 43 40 43 45 47 49 50 56 57 57 57 56 55 55 54 53 52 51 50 47 46 47 47 43 42 41 39 36 36 37 37 37 37 36 37 37
25 23 23 22 24 18 16 16 21 27 37 41 42 42 39 38 44 46 50 54 56 57 57 56 56 55 55 54 52 50 48 47 45 45 46 47 42 40 39 38 37 37 38 37 38 38 37 35 36
23 25 25 24 20 15 22 7 20 23 28 35 37 37 36 36 42 47 51 56 57 57 57 56 55 55 55 54 52 49 47 45 45 45 46 46 41 40 39 38 38 39 39 38 37 34 34 34 30
25 27 25 25 23 24 23 20 18 21 22 32 35 34 34 37 40 48 54 56 57 58 57 57 55 55 55 55 53 49 47 46 46 46 46 43 41 40 39 39 39 37 35 33 32 31 32 33 32
29 24 30 30 29 21 21 22 19 21 19 23 34 35 36 38 42 46 55 56 57 58 58 57 56 56 57 56 53 51 47 46 46 46 44 42 43 39 36 34 33 33 31 30 31 31 30 31 32
27 25 21 19 20 19 25 24 23 25 25 25 28 33 36 40 45 49 55 57 57 57 58 57 57 56 56 56 53 51 47 46 46 46 44 41 37 34 32 32 31 31 30 31 31 32 33 34 35
27 25 19 14 18 19 27 21 23 29 29 29 30 29 38 42 46 49 55 57 57 57 57 57 57 56 54 53 51 49 46 46 46 44 41 37 35 34 33 33 31 30 31 32 34 35 35 33 34
26 24 28 26 31 26 24 19 27 30 30 33 32 35 37 44 48 51 53 55 57 57 57 57 57 54 52 50 47 43 41 41 40 37 37 36 35 34 33 30 29 30 32 34 33 32 32 32 33
27 26 21 25 15 16 16 18 24 28 29 33 34 36 44 47 51 53 53 54 56 56 55 54 53 50 48 47 44 40 40 39 37 37 36 34 33 31 31 31 28 30 32 32 31 31 32 31 31
24 22 22 22 21 17 17 14 20 28 31 33 34 39 45 46 49 51 52 52 53 53 50 48 47 48 46 43 41 40 39 39 39 36 35 32 34 35 31 28 28 29 32 31 30 29 30 31 31
31 28 27 20 16 23 20 16 22 28 30 34 35 41 45 45 46 49 50 51 51 50 47 46 46 46 43 41 40 37 38 39 37 35 34 35 34 31 29 28 28 30 31 31 29 28 30 30 30

GFSSGP_sfc_30mbdewp_051.txt.gz
Dewpoint
51 49 40 30 19 18 15 17 26 45 47 55 56 55 55 57 52 46 63 64 68 68 69 70 69 68 68 68 67 66 64 61 60 60 62 62 62 62 61 60 59 58 55 54 54 54 58 61 62
41 39 30 19 12 10 9 16 26 35 52 57 53 55 55 55 61 61 62 67 67 68 69 69 69 68 68 68 66 65 62 61 61 61 60 61 61 60 60 60 60 58 55 52 53 53 54 57 60
40 32 23 20 8 5 7 22 45 47 53 49 51 54 55 56 62 62 65 67 67 68 68 68 68 68 68 67 65 64 63 63 63 62 60 60 60 59 59 61 59 57 54 51 52 53 54 56 58
27 20 15 10 8 10 13 43 40 45 46 48 50 49 54 62 62 64 67 67 67 68 68 67 66 68 67 66 65 65 64 63 63 62 62 60 59 59 60 60 59 57 54 52 52 53 57 56 56
24 19 14 6 5 16 47 49 48 46 47 47 48 48 53 63 65 65 66 67 66 67 67 66 66 67 67 66 65 64 63 63 63 63 62 61 60 59 61 61 60 58 56 54 53 55 55 57 55
24 16 11 10 9 25 46 48 49 46 46 45 47 48 55 63 62 64 65 64 63 63 67 65 66 65 64 65 64 64 63 64 63 63 62 61 61 61 61 61 60 59 57 56 55 54 53 54 55
20 18 13 11 11 10 41 49 47 46 43 41 49 49 56 60 62 63 63 63 62 62 62 63 64 63 65 64 64 63 64 64 64 63 62 62 62 62 61 60 59 58 57 54 54 53 53 52 51
21 16 12 10 9 13 43 47 48 47 45 48 52 49 52 59 62 61 62 61 60 60 60 61 63 64 63 63 62 62 63 63 63 62 61 61 61 61 60 59 58 56 55 54 55 53 52 52 50
17 16 13 13 13 23 47 44 47 49 48 55 57 54 58 60 60 59 58 57 57 57 57 56 60 62 62 61 61 62 62 62 61 61 60 60 60 59 56 58 57 55 54 56 53 50 49 47 49
17 14 13 13 16 36 45 44 44 43 51 53 54 57 59 60 58 57 56 55 54 53 53 52 50 55 62 61 61 61 61 60 59 59 59 58 58 56 57 58 57 55 55 51 49 46 42 40 41
16 13 13 12 24 41 43 42 45 42 44 52 53 54 57 57 57 57 56 56 55 56 56 57 55 58 61 60 60 59 59 58 58 58 57 58 59 56 56 55 54 51 47 43 41 39 37 35 37
10 12 11 12 40 40 39 39 40 41 41 53 55 55 55 56 56 56 56 57 56 57 58 61 61 61 59 59 59 58 56 57 56 56 57 59 58 55 54 54 50 46 43 40 39 38 35 33 33
14 20 24 25 39 38 40 40 39 46 55 55 55 55 55 54 55 56 56 55 57 58 60 61 60 59 58 57 57 57 57 57 59 60 60 59 58 57 53 50 47 43 39 37 35 34 33 32 32
25 26 35 39 39 39 37 37 37 50 55 55 55 55 54 53 54 55 55 56 58 58 59 61 59 57 57 56 57 57 59 61 60 59 60 59 56 52 48 45 43 40 38 35 33 32 33 34 32
26 18 34 37 37 36 36 32 36 50 54 53 53 55 55 54 53 54 54 56 58 59 58 60 58 55 57 57 58 59 61 60 58 57 57 53 51 49 46 44 42 39 36 35 35 35 34 34 34
24 16 25 33 37 37 30 25 40 49 51 50 52 54 54 54 53 54 54 54 58 57 57 58 56 57 58 58 59 59 59 58 57 54 52 51 49 48 45 43 41 39 37 36 35 35 35 35 35
23 10 17 27 33 35 33 24 34 45 48 48 48 50 54 54 54 54 55 54 58 55 55 57 58 57 57 57 57 57 57 56 55 52 51 49 48 45 43 42 41 38 37 36 36 36 35 34 35
22 19 17 17 26 30 32 26 38 42 44 45 49 51 54 55 55 55 55 55 57 53 57 58 57 57 57 56 55 55 55 54 52 51 49 48 46 42 41 41 39 38 36 36 37 36 37 36 36
26 22 18 19 20 23 25 26 27 43 48 48 51 52 52 54 56 55 55 55 54 53 58 57 56 56 56 55 53 53 52 51 49 48 48 48 45 43 40 39 38 36 35 36 36 36 35 36 37
24 23 20 21 23 23 25 26 26 41 48 48 49 50 48 54 53 54 53 52 52 54 57 57 56 55 55 54 53 52 51 51 48 47 47 47 45 43 40 38 37 36 37 37 37 36 36 37 37
23 23 22 22 24 22 19 21 24 36 46 48 48 48 45 50 51 52 49 51 51 54 56 56 56 55 55 54 52 50 48 48 46 46 46 47 43 43 41 38 37 37 38 37 38 37 35 32 34
22 26 25 25 22 13 20 11 17 26 40 45 46 45 42 46 48 49 48 49 52 54 56 56 56 55 55 53 51 49 48 47 46 45 46 47 43 41 39 38 38 39 39 38 36 34 34 33 28
25 28 28 25 24 24 23 20 19 23 33 38 43 43 42 41 46 47 48 49 53 54 56 56 56 55 55 54 52 50 48 47 46 45 45 46 43 41 40 39 40 38 35 33 31 31 30 32 31
28 26 28 30 27 19 23 21 19 20 20 26 36 41 40 38 43 46 48 51 54 56 56 56 55 55 55 54 53 50 48 46 45 45 45 44 42 40 39 38 35 34 32 30 30 31 31 32 33
27 25 19 19 19 18 26 24 22 24 25 23 27 36 37 37 40 44 49 54 55 56 56 56 55 55 55 55 54 52 49 47 46 45 45 42 38 35 34 34 34 32 31 32 32 33 34 34 34
27 25 20 14 15 17 26 23 21 28 30 29 29 35 37 38 41 47 53 55 56 56 56 57 56 56 56 56 55 53 50 48 47 46 44 40 36 35 35 36 35 32 32 33 35 34 33 32 32
27 24 26 25 30 24 23 22 23 29 30 33 31 32 37 39 43 48 54 55 56 57 57 57 57 56 56 56 55 52 49 47 46 44 41 38 37 36 37 34 33 33 34 34 33 32 31 31 33
26 27 22 24 16 16 16 18 19 26 27 30 35 33 34 41 45 48 54 56 57 57 57 57 57 57 55 53 51 48 46 43 41 40 39 37 39 38 36 35 36 32 34 33 32 31 32 31 31
26 24 23 24 20 15 16 17 17 27 28 27 30 36 42 44 48 51 53 55 56 57 57 57 57 56 51 49 45 43 42 40 40 39 37 37 38 38 40 36 31 31 32 32 31 30 29 29 30
28 25 26 22 18 23 20 16 21 23 29 32 32 36 43 46 49 52 52 54 55 55 55 55 54 52 48 46 44 41 41 40 38 36 35 38 43 40 34 34 30 30 31 31 30 29 29 29 29

GFSSGP_sfc_30mbdewp_054.txt.gz
Dewpoint
51 45 38 26 18 17 13 14 20 31 47 56 57 55 54 57 52 46 62 65 68 67 69 68 68 68 68 67 66 64 63 61 60 60 62 63 62 61 61 60 59 59 57 60 62 61 61 62 64
42 38 29 18 11 9 7 14 27 43 50 52 53 55 54 56 60 61 61 67 67 68 68 68 68 68 67 66 65 63 61 61 61 61 62 62 61 61 61 60 58 58 57 57 60 62 63 63 61
38 27 23 18 9 5 6 11 35 46 50 50 50 52 54 56 61 62 65 67 67 68 68 68 68 68 66 65 64 63 62 62 62 62 61 60 60 61 60 59 58 58 57 54 55 57 57 59 60
26 20 14 11 8 9 8 28 48 45 47 48 49 49 55 61 63 64 67 67 67 68 68 67 68 67 66 65 64 64 63 63 62 62 62 60 60 59 61 60 58 58 56 55 54 55 57 58 58
23 19 13 7 6 8 41 48 48 45 46 48 49 50 54 62 65 66 65 65 64 66 67 67 67 66 66 65 64 64 64 63 63 63 62 61 61 60 61 60 59 58 57 56 55 55 55 56 57
24 16 12 10 10 12 45 48 48 46 47 48 48 50 56 62 63 63 63 62 63 63 62 66 66 65 65 65 64 64 64 64 64 63 62 62 62 61 61 60 59 58 58 57 57 57 56 55 54
20 17 13 11 11 10 32 48 47 47 45 44 51 47 57 60 63 62 61 61 61 61 60 61 63 61 64 64 64 64 65 64 64 63 62 62 62 61 60 59 58 58 58 58 58 57 55 56 55
21 16 12 11 11 10 44 47 47 46 45 49 53 50 53 59 62 61 61 60 60 59 58 58 59 61 63 63 63 64 64 64 63 63 62 62 62 61 60 59 58 57 57 56 55 56 54 54 52
18 16 14 13 15 17 47 43 47 49 50 55 56 54 58 60 60 58 58 58 58 59 59 60 57 54 60 62 62 63 63 63 62 62 61 60 60 59 57 58 57 58 56 54 52 50 49 48 47
18 16 15 15 14 19 41 44 43 45 52 53 54 58 59 59 57 56 56 55 56 56 56 57 58 61 61 61 61 61 62 61 60 60 59 58 56 57 58 58 57 55 53 51 48 45 43 38 35
16 15 14 13 14 35 40 44 44 45 48 52 53 56 57 57 56 55 54 53 54 53 54 56 57 61 60 60 59 59 59 58 58 58 58 58 57 57 56 54 51 47 44 40 38 35 35 34 35
15 14 14 13 25 41 42 41 42 42 43 53 55 56 57 57 56 55 53 52 51 51 50 53 56 57 60 59 58 58 57 57 57 57 58 58 55 55 54 50 46 43 40 38 36 35 33 33 33
14 19 24 26 37 40 39 40 40 50 55 55 55 56 55 56 55 56 55 54 55 54 55 58 60 59 59 59 58 57 56 56 56 57 58 59 55 54 53 47 43 40 38 35 34 33 33 33 33
23 25 35 39 38 39 38 39 40 52 54 53 54 54 55 56 56 56 56 55 55 56 57 60 60 59 58 58 57 57 57 57 58 59 59 59 57 53 50 45 41 38 35 34 33 33 33 32 32
26 20 33 38 38 38 36 36 36 52 53 53 53 54 54 54 55 55 55 55 56 56 59 60 60 58 57 57 57 57 58 59 59 59 59 57 55 50 47 42 39 36 35 35 35 35 35 34 33
24 16 25 32 37 37 31 26 44 53 53 52 53 53 54 53 53 55 55 56 58 58 59 60 59 56 57 56 57 58 59 59 58 57 55 53 52 49 45 42 38 37 36 35 35 35 34 35 34
21 15 17 28 35 35 32 25 42 53 52 51 52 52 53 53 53 53 54 54 57 58 57 59 57 56 56 57 57 58 58 57 56 54 53 50 49 46 44 42 39 38 37 36 36 36 35 34 35
22 22 22 18 28 32 32 31 39 50 50 50 51 53 53 53 53 53 54 54 57 57 56 57 57 56 56 56 56 56 56 55 54 52 50 49 47 44 43 41 39 38 36 36 37 36 37 36 36
25 23 20 19 20 27 26 26 34 44 47 47 48 50 52 53 53 54 54 55 56 55 56 57 56 56 56 55 55 54 54 53 51 51 50 48 44 42 42 40 39 37 35 36 36 36 35 36 37
25 23 22 21 24 23 23 23 28 41 44 45 47 50 51 54 55 55 55 55 55 54 56 57 56 56 56 56 54 53 52 51 50 50 49 47 44 42 40 39 37 36 37 37 37 36 36 37 36
23 23 23 23 24 21 20 18 25 35 46 49 50 50 51 52 54 55 55 54 54 54 56 56 56 55 56 55 53 51 50 49 48 47 47 47 44 42 39 38 37 38 38 37 37 37 34 31 33
21 26 26 26 24 19 21 12 16 27 40 46 48 49 50 49 53 54 54 53 53 53 56 56 56 55 55 54 52 51 50 49 47 46 46 47 45 43 41 38 38 38 38 38 35 34 34 30 26
23 27 27 27 24 23 22 20 19 22 25 39 46 47 48 47 50 53 53 53 52 53 55 56 56 55 55 54 52 51 50 50 48 47 46 46 43 42 40 39 39 39 37 33 32 31 31 32 30
29 28 28 29 26 19 21 21 19 20 21 27 40 46 46 45 46 50 52 51 51 53 55 56 56 55 55 54 53 51 50 49 48 46 45 45 42 41 40 39 37 34 32 31 31 31 31 32 32
27 24 19 18 19 17 25 23 22 23 25 25 28 39 45 45 43 46 48 49 50 53 55 55 55 55 56 55 54 53 51 50 48 45 45 43 41 38 38 36 34 33 34 34 32 33 34 34 33
26 24 20 15 15 15 25 20 20 26 30 30 30 28 40 43 41 43 46 49 51 54 55 55 55 55 55 56 55 53 52 49 47 46 45 43 40 37 36 36 35 35 34 34 35 34 33 32 32
28 23 26 25 29 24 21 22 19 28 30 33 32 33 35 39 39 41 45 49 53 54 55 55 55 55 55 56 55 54 53 50 47 46 44 40 37 37 37 36 35 38 40 36 35 33 31 31 31
27 29 23 23 18 16 17 17 16 19 26 29 31 33 35 39 40 43 46 51 54 55 55 56 56 56 56 56 55 54 52 50 47 44 41 38 39 38 37 38 40 41 37 34 33 32 31 31 31
27 25 24 23 20 15 14 15 19 19 27 28 29 34 36 37 42 44 49 54 55 56 56 56 57 56 56 56 55 53 50 47 44 42 40 40 39 39 40 41 41 36 34 34 33 31 30 31 30
26 25 24 21 19 23 21 18 21 19 22 28 29 33 39 43 43 48 50 54 55 56 56 56 56 56 55 53 50 49 46 44 43 41 40 40 41 41 43 40 34 32 33 32 32 31 30 30 29

GFSSGP_sfc_30mbdewp_057.txt.gz
Dewpoint
51 41 36 25 16 17 12 13 19 22 34 55 57 54 52 56 52 47 62 64 66 67 66 67 69 68 67 67 66 65 63 62 62 64 64 63 62 62 61 61 62 65 63 64 62 64 63 58 59
44 35 29 21 12 8 5 15 19 37 46 52 53 53 51 51 59 60 61 66 67 67 66 66 68 67 67 66 65 64 62 63 64 64 63 62 62 61 61 60 62 64 64 62 62 64 60 59 61
36 25 25 19 11 5 7 11 30 46 50 50 51 54 55 55 60 61 65 66 68 66 66 66 67 67 66 65 64 63 63 63 64 63 63 63 62 61 61 60 60 61 62 62 63 60 58 60 61
27 21 16 13 10 10 8 13 48 45 47 48 50 51 57 62 63 64 66 66 66 66 67 66 67 66 65 64 63 63 63 64 63 62 62 62 61 60 60 60 59 59 59 58 57 56 57 59 59
23 20 15 10 8 9 18 45 48 46 46 48 50 51 54 62 63 64 64 65 65 65 65 66 66 66 65 64 63 63 64 63 63 62 62 62 61 61 60 60 60 58 58 58 57 57 57 57 57
24 18 14 9 11 12 36 48 47 46 47 49 49 52 56 63 62 62 63 63 63 62 65 65 65 65 63 64 64 64 64 64 63 63 62 62 62 62 61 60 60 59 58 57 56 56 57 58 56
22 18 14 12 12 12 30 49 47 46 45 44 50 50 56 60 61 61 61 62 62 61 59 59 59 59 59 59 65 64 64 64 63 63 63 63 62 61 60 59 59 59 58 58 58 58 56 55 54
22 18 14 13 12 13 38 47 47 48 46 51 55 49 52 59 61 61 60 58 59 60 59 59 57 56 56 59 63 64 64 64 64 63 62 62 61 60 60 59 59 59 59 58 56 57 54 51 50
19 17 15 14 14 18 44 44 48 50 51 54 55 54 58 60 59 59 58 57 57 57 57 57 55 55 56 59 62 63 64 63 63 61 61 59 56 55 53 58 59 57 57 54 53 51 49 48 46
19 17 16 16 15 16 41 43 44 45 51 52 53 58 59 59 58 57 56 56 56 57 56 56 55 52 50 51 56 62 63 61 61 60 59 56 56 55 54 57 56 55 53 52 48 45 41 35 33
18 16 16 15 15 22 32 43 44 44 47 51 52 55 57 57 57 57 56 56 56 56 52 50 50 53 58 58 60 60 60 59 59 59 58 57 58 57 57 54 50 47 45 38 38 36 36 37 34
17 17 17 15 15 34 33 43 43 45 45 51 54 56 57 56 55 55 55 55 55 54 51 57 59 60 59 59 59 59 57 57 56 58 58 57 56 56 54 49 46 44 41 40 38 37 38 37 36
15 17 23 23 31 38 41 41 42 48 54 55 57 57 56 55 55 54 53 53 53 51 52 54 58 60 59 58 58 57 57 56 58 59 60 58 56 56 52 47 44 41 39 38 36 35 35 36 35
22 23 31 39 38 40 39 41 43 51 55 54 54 54 55 54 55 53 53 53 52 49 51 54 56 59 59 57 57 57 58 58 58 58 59 59 56 55 49 45 42 39 37 37 35 34 34 34 34
26 24 30 38 38 38 39 36 36 51 54 53 53 53 54 54 55 52 52 52 51 50 52 54 56 59 59 58 57 57 57 57 57 57 59 60 57 55 50 45 41 38 38 38 38 37 37 34 33
24 16 20 31 37 37 34 30 43 52 52 51 52 53 54 54 55 56 55 53 52 51 54 57 58 59 59 58 57 57 57 58 59 59 60 60 58 54 50 45 40 40 39 39 39 36 36 35 34
24 16 17 25 36 36 32 27 43 51 52 50 51 51 53 53 54 55 56 55 55 55 55 58 60 59 59 58 57 58 59 60 60 59 58 57 56 52 49 43 41 41 39 39 37 38 36 35 35
21 22 22 19 25 33 33 31 43 51 52 50 48 50 51 52 52 54 55 55 56 55 57 59 60 59 58 58 58 58 59 59 59 57 56 55 53 50 46 43 42 41 39 39 39 38 39 37 37
25 24 21 21 22 32 31 30 35 50 51 49 49 49 50 51 52 54 54 55 56 57 57 58 58 58 57 56 56 56 57 58 57 55 54 52 50 47 45 42 42 40 39 39 40 39 39 38 38
25 23 22 23 25 25 24 22 27 46 49 48 48 48 47 50 52 53 54 54 54 55 57 57 58 57 57 55 55 55 56 56 56 55 53 51 48 46 45 42 40 39 39 40 40 40 38 38 37
24 22 24 24 25 22 20 17 24 38 45 47 47 48 48 50 52 53 54 54 55 55 56 57 57 57 56 56 55 54 54 53 53 53 52 50 47 45 44 43 40 40 40 39 40 40 38 34 35
21 25 26 25 24 19 22 18 18 24 39 44 45 47 48 50 51 53 55 54 55 55 56 57 57 57 57 56 54 53 53 53 53 52 52 50 47 44 42 42 41 41 40 40 40 37 35 32 27
24 28 27 27 25 24 23 21 20 22 24 35 44 47 49 49 51 52 54 55 55 55 56 57 57 56 57 56 55 54 54 55 52 51 50 49 47 45 42 41 41 41 41 40 37 36 34 32 29
29 29 27 28 26 20 22 21 20 20 21 24 31 43 49 49 50 51 54 55 55 55 56 57 57 56 56 56 55 54 54 53 51 50 49 48 46 45 43 41 41 41 39 37 35 34 33 34 32
27 24 20 20 20 17 26 23 22 24 25 26 27 33 45 49 49 49 52 53 54 53 55 56 56 56 56 56 55 54 54 53 51 51 49 48 46 43 42 41 41 38 36 35 35 34 36 36 36
26 25 21 15 15 16 25 21 19 27 27 31 33 32 33 47 48 47 49 51 52 53 54 55 55 55 56 56 55 55 54 53 52 50 48 48 47 44 42 40 38 35 36 36 37 39 36 36 36
28 24 27 25 28 24 22 22 20 25 26 31 33 32 33 38 46 46 47 49 51 52 54 55 55 55 56 56 56 55 55 54 52 50 49 48 46 42 40 38 36 37 39 41 39 36 34 34 34
28 29 24 25 18 17 18 18 15 18 26 28 28 32 34 38 39 42 44 48 50 52 53 55 55 55 55 56 56 56 55 54 52 50 48 45 42 39 38 37 38 42 43 40 36 34 33 33 33
28 26 25 24 22 17 15 15 22 19 24 28 30 33 36 36 40 41 43 47 50 53 54 55 55 55 55 56 56 56 55 55 52 49 45 43 41 41 38 40 42 43 39 36 35 34 33 33 32
28 26 25 22 20 24 21 19 23 23 22 24 27 31 36 41 41 44 45 50 52 54 54 55 55 55 56 56 56 56 55 52 50 47 44 43 41 41 41 42 42 38 37 36 34 33 32 32 32

GFSSGP_sfc_30mbdewp_060.txt.gz
Dewpoint
51 36 31 26 13 9 7 7 11 13 31 43 48 39 42 48 48 43 60 64 65 65 63 66 69 68 68 68 66 65 65 65 65 64 64 63 63 63 64 65 66 65 64 64 62 58 58 59 60
34 32 30 21 10 5 5 9 9 23 37 50 52 50 48 46 56 58 61 64 66 65 64 63 68 68 67 66 65 64 65 65 64 64 63 63 63 63 65 66 65 66 65 64 59 58 59 60 61
32 27 22 16 10 6 6 10 15 37 45 49 49 53 49 46 55 59 62 64 66 65 64 65 68 67 66 65 64 64 64 64 64 63 63 63 63 62 64 66 65 65 65 63 58 59 60 60 61
25 16 17 10 8 9 5 8 29 34 44 47 49 48 55 60 61 64 64 64 65 65 65 67 67 67 65 65 64 64 64 64 64 63 63 62 62 62 62 63 64 65 64 59 57 58 58 60 59
22 14 8 8 8 4 6 21 34 37 44 45 48 48 53 62 64 65 65 65 64 64 66 66 66 66 65 64 64 64 64 63 63 63 62 62 62 62 61 61 62 61 60 57 56 56 57 58 58
18 16 7 7 6 5 11 33 41 43 46 47 47 49 55 62 62 64 64 64 62 61 61 66 66 65 63 61 62 64 64 63 63 63 62 62 62 62 62 61 60 60 60 60 59 58 57 56 55
18 15 10 9 6 10 19 42 42 43 44 44 47 45 56 60 62 63 62 62 61 59 59 58 58 59 58 59 58 59 63 64 63 63 63 63 62 61 61 61 59 59 58 58 57 58 57 55 54
17 15 12 9 7 16 27 41 45 45 43 48 49 46 51 59 61 60 61 59 58 58 57 56 55 55 55 54 57 60 64 64 64 64 63 62 61 61 61 60 60 59 59 58 56 55 54 53 51
19 12 9 11 12 20 33 35 47 48 46 49 52 51 56 60 59 58 58 59 58 57 56 56 54 54 55 56 59 60 63 63 62 61 59 55 52 52 52 57 61 59 58 56 54 52 50 48 47
18 13 11 13 14 15 20 35 40 44 45 47 53 58 59 59 57 56 57 56 56 57 56 56 56 55 54 55 57 59 59 58 58 56 54 51 51 51 53 57 58 57 55 52 49 45 41 38 35
19 13 15 17 18 18 19 30 35 38 37 43 49 55 57 58 57 56 56 56 56 56 54 55 54 53 54 56 57 57 59 59 58 57 53 53 53 53 53 52 49 48 47 41 40 40 39 38 34
18 17 19 19 19 21 23 30 37 40 43 48 52 56 57 57 56 56 55 56 54 53 53 52 50 51 51 52 52 53 51 54 53 54 54 54 52 53 52 50 48 46 44 43 42 41 39 37 35
21 18 21 25 32 28 35 35 39 43 50 53 55 56 56 56 55 56 56 56 55 50 50 51 57 58 54 52 52 52 53 53 52 54 54 53 53 53 52 50 47 46 45 43 40 39 36 35 34
23 22 24 33 32 35 36 39 40 46 52 54 55 55 55 55 54 54 55 54 53 50 54 55 55 53 53 52 55 53 52 51 54 53 54 55 54 54 52 50 47 45 43 41 39 37 35 33 33
26 23 24 34 34 36 38 35 35 45 52 53 53 54 54 54 54 52 55 53 51 49 50 52 51 54 53 52 54 52 52 52 50 54 58 55 54 55 52 50 47 44 42 41 39 37 36 33 29
22 21 16 31 35 38 36 25 35 47 49 49 52 52 53 54 53 51 53 52 49 48 50 51 51 54 55 52 52 51 51 51 51 54 58 60 56 55 53 50 47 44 42 40 39 38 35 33 30
17 15 14 27 34 34 34 26 38 48 47 45 48 49 51 53 52 51 52 51 49 49 49 50 50 51 57 56 52 52 53 52 52 56 58 60 60 58 54 50 47 45 42 40 39 38 36 34 32
11 16 16 15 28 33 29 25 34 46 46 44 43 46 49 50 51 53 53 52 49 49 51 51 52 54 58 58 56 53 54 53 55 57 58 60 60 58 55 51 47 43 41 42 39 39 37 35 36
22 19 17 19 23 29 26 24 23 41 47 45 43 43 46 48 50 53 53 53 51 49 52 53 54 56 58 57 53 50 51 52 54 56 59 59 58 57 55 50 46 43 42 41 42 41 39 38 38
24 18 17 22 24 25 21 20 21 32 43 44 44 43 43 45 49 51 53 53 53 50 51 53 55 57 57 56 52 50 50 52 53 57 58 58 57 55 53 49 45 43 43 43 42 40 39 39 37
24 21 20 20 24 24 21 16 21 31 40 45 46 45 42 42 45 49 52 53 53 53 53 53 54 56 56 56 53 51 51 54 54 55 58 57 55 53 51 48 44 44 43 42 42 42 40 38 37
21 23 23 22 20 16 22 14 18 22 31 38 41 45 45 42 44 47 51 52 53 53 53 54 54 55 56 57 53 52 48 48 51 54 57 57 54 52 49 46 44 45 42 41 42 41 40 38 34
21 26 25 24 22 23 20 17 16 21 20 28 36 40 44 45 44 45 49 51 53 54 55 55 54 55 56 57 56 54 51 47 51 56 56 55 53 50 46 45 45 45 42 43 42 41 39 34 30
28 27 27 27 24 19 20 18 14 15 18 21 25 35 39 43 46 46 45 51 52 54 55 56 56 55 56 57 57 56 55 53 55 55 55 54 53 50 47 44 45 44 42 43 42 40 36 32 35
27 24 20 21 20 17 23 20 16 20 23 25 27 29 32 40 45 47 46 48 51 53 55 56 56 55 55 57 58 58 57 56 55 54 54 53 51 49 47 45 45 43 43 42 40 36 36 36 38
25 23 19 14 15 16 23 15 15 24 25 29 32 33 33 34 43 45 47 48 50 53 55 56 56 56 55 57 57 58 57 57 56 55 55 53 51 48 49 47 44 43 42 39 38 38 39 38 37
27 23 26 25 29 23 18 18 19 22 23 29 28 30 33 33 38 43 45 47 50 52 54 55 56 55 55 57 58 57 57 56 55 55 54 53 50 50 49 46 45 41 39 40 40 42 39 37 38
29 27 23 24 18 15 16 16 12 16 23 21 22 25 30 36 37 40 43 46 49 51 53 55 56 56 56 56 57 57 57 57 56 55 54 52 51 52 47 44 39 40 42 43 41 39 37 36 36
27 25 26 24 22 17 15 15 18 19 21 27 29 29 31 35 39 40 41 43 46 50 52 54 55 54 54 55 56 57 56 56 56 56 54 51 50 47 44 41 41 43 44 41 39 37 36 36 34
26 24 25 20 19 24 23 18 19 22 25 24 25 29 34 38 40 41 42 44 46 49 51 52 53 53 53 55 56 56 56 56 55 54 51 50 46 43 42 42 44 43 41 39 38 37 38 35 32

GFSSGP_sfc_30mbdewp_063.txt.gz
Dewpoint
53 44 27 21 13 10 5 4 7 7 10 31 39 38 28 23 41 44 60 61 63 64 63 67 69 69 69 69 68 67 66 65 65 65 64 65 65 65 65 65 66 66 64 59 59 59 59 60 60
35 25 24 19 13 5 3 5 7 9 30 36 39 41 38 34 52 59 60 62 63 64 64 65 69 69 69 68 67 66 65 65 65 64 64 65 65 66 66 66 66 66 63 59 59 59 60 60 60
32 21 19 16 11 6 4 12 10 17 33 37 38 46 45 40 49 55 60 63 64 65 64 66 68 69 68 67 66 65 65 65 64 64 64 65 67 67 67 66 66 65 61 59 59 59 60 60 60
25 17 14 7 5 6 7 6 10 20 29 41 40 41 49 58 60 63 63 63 64 65 65 67 68 67 66 66 65 65 65 64 64 64 64 65 67 67 66 66 65 64 61 59 59 58 59 59 59
21 15 8 6 6 7 6 9 27 32 32 38 42 40 45 59 63 65 65 65 64 63 63 67 67 66 65 65 65 65 64 64 64 64 64 64 64 65 66 66 65 62 60 58 57 57 57 58 57
16 14 7 3 8 7 6 25 30 37 38 43 42 42 51 61 62 63 63 62 64 62 62 65 64 63 63 63 64 64 64 64 63 63 63 63 63 63 63 62 61 61 60 59 58 57 56 55 55
15 13 10 8 7 7 16 33 35 35 39 39 42 40 55 59 62 61 60 61 61 61 62 61 61 59 58 58 59 60 62 63 63 64 63 63 63 62 62 62 62 61 60 59 57 56 56 54 54
16 12 8 7 7 12 26 30 36 30 35 46 44 40 45 59 61 59 59 58 58 58 58 59 59 57 56 55 55 57 60 63 64 63 62 62 62 61 61 60 59 59 58 57 56 56 54 52 50
15 9 6 8 9 17 28 25 41 42 40 45 47 49 59 60 60 58 57 57 57 57 57 56 56 56 56 57 58 60 62 63 62 61 59 57 57 53 53 58 60 59 58 56 54 52 49 47 45
14 11 9 11 11 13 15 21 30 34 27 43 50 56 59 59 58 57 56 55 56 55 56 56 56 56 55 54 56 59 59 59 57 56 55 53 54 54 56 59 59 58 56 53 50 44 43 43 35
13 11 12 12 15 17 17 19 25 33 29 46 44 55 57 57 57 57 56 56 55 55 55 55 55 55 54 55 56 58 57 57 55 55 53 54 55 56 56 55 51 51 48 41 40 40 42 39 35
14 12 13 15 17 18 18 22 26 32 41 45 52 56 57 58 56 56 56 56 55 55 55 56 55 56 55 56 57 57 58 57 55 54 56 56 55 55 53 50 49 47 46 43 45 44 42 38 37
16 14 15 16 19 25 26 25 28 36 46 53 55 56 56 56 56 56 56 55 55 54 54 55 55 57 56 54 53 53 54 52 53 53 55 56 54 55 51 51 49 48 47 47 45 43 40 38 36
18 20 16 18 23 26 26 27 36 41 48 53 54 54 55 55 55 56 56 53 52 52 52 53 54 54 53 51 48 49 48 48 52 53 55 56 54 55 52 52 49 48 47 46 44 42 40 36 35
21 18 17 18 23 22 28 26 37 44 48 51 52 54 54 54 54 54 56 54 52 52 55 55 53 54 53 52 52 51 50 49 51 51 53 54 54 55 53 51 49 48 47 46 43 41 39 36 32
18 16 14 22 22 25 28 34 41 42 46 48 48 49 51 49 49 53 55 54 51 52 51 50 47 51 52 52 52 49 48 50 52 51 53 55 54 55 54 52 50 49 47 45 44 42 40 36 33
14 11 18 26 23 26 25 32 41 36 40 44 44 46 49 49 46 51 54 50 48 48 49 51 48 50 49 49 51 50 53 51 49 50 54 56 55 55 54 53 52 49 47 45 44 43 41 36 34
12 9 15 11 26 22 21 23 35 36 37 39 41 43 46 47 45 48 48 47 47 48 49 49 49 50 51 53 51 49 50 49 48 50 51 57 59 59 57 54 53 50 47 45 44 44 41 38 37
20 14 12 17 20 22 22 26 24 36 36 38 39 41 44 45 45 48 49 48 47 48 49 49 48 49 52 52 50 47 47 48 49 51 53 56 59 60 59 55 53 51 47 46 46 45 41 39 40
20 17 13 17 19 21 20 23 22 25 36 36 38 37 41 44 45 46 48 48 47 47 48 48 48 49 52 52 51 46 44 46 47 49 53 58 59 59 58 56 53 51 47 47 47 45 42 41 41
21 18 22 20 26 20 18 17 18 21 32 37 38 38 39 42 44 46 47 49 48 48 49 50 50 50 51 50 50 46 46 46 48 49 52 58 59 58 57 56 53 51 48 47 48 45 42 40 41
20 20 19 19 17 16 26 19 25 19 25 33 37 41 40 39 42 46 49 50 51 50 49 50 50 50 51 52 50 48 45 43 46 49 50 56 57 57 56 55 52 49 48 48 48 46 44 42 40
20 25 21 20 21 21 21 14 25 18 13 21 32 40 39 38 39 41 46 49 51 52 51 51 50 50 51 53 52 51 48 46 47 49 51 57 57 56 55 54 51 49 48 48 47 46 44 42 39
23 23 22 21 21 21 19 18 20 18 13 13 18 30 37 38 37 38 42 46 48 50 52 53 52 51 52 53 54 54 52 51 46 47 54 57 57 55 54 51 51 50 49 48 46 46 44 40 35
24 21 19 20 25 19 24 16 19 24 18 19 20 21 30 36 40 40 39 43 47 48 51 53 54 52 52 53 54 55 55 55 53 52 55 55 55 55 54 52 50 49 49 47 47 45 42 38 37
23 21 21 21 20 25 20 13 16 18 19 22 25 28 29 31 36 40 42 40 45 48 50 53 53 54 53 55 56 57 57 57 56 56 57 56 56 56 54 53 49 48 49 49 45 41 40 39 40
24 22 25 24 23 19 16 15 15 17 16 21 23 26 29 31 31 37 41 43 43 46 50 53 53 53 54 55 56 58 58 58 58 58 57 57 57 54 52 50 48 49 50 43 42 41 42 41 40
28 26 22 20 20 17 14 13 14 16 20 18 19 21 23 31 33 36 40 43 46 47 50 53 55 54 54 55 57 58 59 59 58 58 56 56 55 53 50 50 50 47 42 42 43 43 41 39 39
24 26 24 26 26 20 15 13 19 16 18 20 22 21 24 27 34 38 39 41 44 47 50 53 55 55 55 55 57 59 59 58 58 57 56 56 55 53 52 50 44 43 44 45 43 40 39 38 37
23 22 23 20 18 20 20 19 19 18 19 21 21 23 25 31 32 37 40 42 43 46 48 51 53 55 55 55 56 58 57 57 57 57 57 55 53 49 46 43 44 44 44 43 41 39 39 38 38

GFSSGP_sfc_30mbdewp_066.txt.gz
Dewpoint
48 44 40 31 16 14 9 7 5 6 11 41 36 39 39 32 35 34 57 60 61 60 67 69 70 70 70 69 68 67 67 66 66 66 66 66 67 67 68 67 65 63 61 59 60 59 59 58 58
42 41 32 20 15 12 7 8 10 10 22 39 39 35 32 30 54 55 59 56 58 58 66 68 69 69 69 69 67 67 66 66 65 65 66 66 66 67 67 66 64 62 61 60 59 59 59 58 58
43 31 19 17 16 11 7 10 10 11 16 26 27 38 34 47 57 60 63 61 61 66 64 68 69 69 69 68 67 66 66 65 65 65 66 66 66 67 67 66 62 62 61 60 59 59 59 58 58
29 22 16 11 6 5 6 12 7 11 29 42 40 36 51 61 61 64 65 65 65 65 65 68 68 68 68 67 66 66 65 65 65 65 66 67 67 67 67 64 62 62 61 59 58 58 57 57 55
27 17 12 9 5 5 9 6 18 33 40 43 45 38 50 55 63 64 64 63 63 65 66 64 63 68 67 66 66 65 65 65 65 66 67 67 67 66 66 63 63 62 60 58 57 57 57 56 53
19 15 11 8 7 13 11 14 26 33 35 44 47 46 50 60 61 61 63 63 63 62 61 61 61 61 66 66 65 65 65 65 65 65 66 66 67 66 65 63 62 61 60 59 57 57 55 55 51
17 13 10 8 7 7 24 27 28 32 32 43 44 44 55 58 59 60 61 62 63 62 61 59 59 60 60 62 62 61 64 64 64 64 64 64 64 63 63 62 61 61 60 58 56 55 55 53 45
14 11 8 7 6 15 28 25 31 28 25 33 45 46 50 57 59 59 59 59 60 62 61 59 58 57 57 58 60 60 64 64 64 64 63 62 62 63 62 62 61 60 59 57 56 55 52 47 42
15 11 8 10 14 25 31 27 30 35 29 41 50 57 58 58 59 57 56 56 56 57 59 59 57 56 56 56 57 58 63 63 62 62 60 59 59 58 57 60 60 59 58 57 55 51 44 40 37
11 10 10 15 10 10 16 20 21 34 37 40 40 53 58 58 57 56 56 54 55 55 56 57 56 56 56 57 54 56 60 60 59 58 57 56 55 57 59 60 59 58 56 55 52 47 43 40 35
13 10 11 11 13 16 16 16 23 23 37 42 40 50 57 58 56 56 55 55 54 55 56 57 57 57 56 56 53 57 58 59 58 57 56 56 58 58 58 56 55 54 51 45 46 45 44 43 39
13 13 9 10 13 15 16 18 19 33 40 41 45 56 56 56 56 55 55 55 54 55 55 56 56 57 57 57 57 58 58 57 55 58 56 58 57 57 55 53 52 50 49 42 44 47 43 40 39
13 13 11 13 13 14 19 23 22 43 48 52 56 55 56 56 56 56 56 55 55 54 55 55 57 57 57 57 57 58 57 55 56 57 56 57 56 56 54 54 51 49 50 48 50 45 42 40 38
16 17 16 15 14 16 19 23 36 45 47 53 54 54 55 55 55 55 55 54 54 54 54 56 56 58 56 57 58 57 56 56 55 56 58 58 56 57 54 55 52 51 50 50 48 46 42 41 38
19 17 16 15 17 18 19 22 36 44 50 52 52 53 53 53 55 54 54 54 53 54 54 55 56 57 56 54 52 51 51 54 55 56 58 57 57 57 56 54 54 52 51 49 49 45 44 39 39
19 18 14 15 18 22 21 22 38 42 44 47 49 50 51 52 53 55 53 53 53 53 55 55 54 54 53 52 47 52 49 51 54 56 56 57 56 57 56 54 54 51 52 49 46 44 42 41 37
16 12 11 14 23 23 27 31 42 40 41 45 45 47 46 49 52 54 54 52 52 53 53 51 52 54 55 54 52 53 52 53 53 55 57 57 56 57 56 56 54 52 50 49 48 46 46 41 37
16 15 16 12 22 23 19 36 40 41 43 43 41 45 45 47 51 52 53 51 51 51 48 47 50 53 54 55 54 53 54 52 52 52 56 57 56 58 57 56 54 52 51 50 47 48 45 44 39
19 16 16 19 22 23 19 22 37 40 39 41 39 43 45 43 47 53 51 49 49 50 51 50 50 53 54 52 52 51 53 52 51 51 53 59 59 59 59 56 56 53 52 49 48 49 46 42 43
20 18 15 17 21 19 16 19 31 35 31 31 36 39 42 43 45 46 47 48 49 50 52 51 51 53 53 52 52 50 51 52 50 51 53 58 59 60 60 59 57 54 52 51 50 48 46 44 44
19 15 20 23 21 20 19 17 21 22 29 30 35 36 42 43 43 46 48 48 49 50 51 50 50 51 52 51 51 50 50 50 50 50 53 58 60 60 59 59 58 55 53 52 51 49 48 44 45
18 18 21 18 18 15 24 20 25 24 22 30 31 35 37 41 42 45 48 48 49 50 51 50 49 49 51 53 51 50 46 45 48 49 52 58 60 60 59 58 58 55 53 50 50 50 48 46 44
21 25 25 20 17 18 21 24 23 23 20 22 30 36 38 39 42 44 45 49 49 50 51 51 51 50 51 52 52 51 48 48 47 50 50 57 58 58 58 57 57 53 53 52 53 49 48 47 45
21 21 23 22 20 18 19 21 22 22 25 19 29 36 40 39 40 44 47 48 50 51 52 52 52 51 51 53 53 54 51 50 48 50 51 58 58 58 58 56 54 53 52 52 53 52 50 50 44
21 20 19 20 20 20 22 21 21 26 26 23 19 34 39 39 38 40 44 48 50 51 53 53 52 51 51 53 55 54 56 54 52 50 53 58 57 57 56 55 54 53 52 52 51 51 50 44 40
22 20 21 22 27 28 30 19 16 22 22 20 21 23 29 37 39 39 39 46 49 51 53 54 53 52 52 53 55 56 56 57 55 55 57 57 57 57 57 55 54 53 52 51 51 49 45 44 44
23 23 22 32 33 31 28 23 18 19 16 17 21 25 27 29 34 40 41 41 47 49 52 54 54 54 53 53 55 56 57 57 57 57 58 58 58 58 57 56 53 51 50 51 48 45 43 43 42
20 25 22 25 27 19 13 14 17 18 18 19 17 22 26 30 32 33 40 43 43 49 51 54 54 54 55 55 56 57 58 59 59 59 59 58 58 54 53 51 50 50 48 45 44 45 43 42 40
19 24 28 23 20 22 21 21 30 22 19 18 21 22 25 28 34 36 38 42 45 46 49 53 54 54 54 55 56 57 59 60 60 59 58 58 57 55 53 52 49 47 44 44 44 43 41 39 39
20 21 26 24 24 26 27 23 28 27 19 21 21 23 24 26 31 37 39 40 42 47 48 53 55 55 55 56 57 58 60 60 58 57 57 57 55 54 51 48 45 44 44 45 42 41 40 38 38

GFSSGP_sfc_30mbdewp_069.txt.gz
Dewpoint
47 46 45 37 24 18 15 14 15 11 23 38 39 36 34 37 40 44 60 58 61 60 61 66 67 70 70 69 68 67 67 67 67 66 67 68 68 68 66 65 64 62 61 59 58 56 56 58 59
45 43 40 34 18 15 15 15 11 17 36 40 35 34 31 51 57 57 59 60 62 61 61 62 61 66 70 69 68 67 67 67 67 66 68 68 68 66 65 63 63 63 60 58 57 55 57 59 59
43 40 32 20 19 17 15 15 13 35 43 41 39 42 54 52 60 62 64 61 59 58 59 57 63 68 69 68 67 67 66 66 66 66 67 68 67 65 64 63 63 62 60 58 56 55 57 57 56
33 29 24 14 12 13 15 10 29 30 38 43 42 44 54 55 59 63 63 61 66 66 66 67 67 68 69 68 67 66 66 66 66 66 67 68 67 64 64 64 63 62 59 57 56 55 55 54 53
36 28 18 15 13 13 12 15 28 31 35 45 42 44 47 57 61 62 63 64 64 64 64 64 64 66 62 67 67 66 66 66 66 66 67 67 66 64 64 63 62 61 59 57 56 54 53 52 51
31 22 17 14 13 12 22 27 32 35 37 45 40 46 51 58 55 60 63 63 62 62 62 63 63 61 60 60 66 66 66 66 67 67 67 67 65 64 64 63 61 60 60 58 56 55 53 48 47
22 20 16 12 10 10 26 26 32 32 37 43 47 44 54 55 58 59 61 62 62 60 60 60 61 60 60 60 64 64 64 67 67 67 66 66 64 64 63 62 61 61 60 57 55 54 50 45 44
23 19 13 11 9 14 27 24 30 28 42 49 50 50 49 56 58 59 59 59 60 60 58 58 59 59 59 59 60 60 59 64 65 65 65 64 63 63 62 61 61 60 58 56 54 50 42 40 40
22 16 11 12 12 19 29 24 31 34 38 43 54 55 55 58 58 57 57 57 57 58 58 57 57 58 58 58 58 59 58 63 63 63 62 62 61 60 60 61 60 59 58 55 52 44 39 37 36
20 14 11 12 12 12 19 25 24 34 38 41 53 57 58 58 57 55 55 54 55 56 56 56 56 56 57 57 57 58 61 61 60 59 57 58 58 59 59 60 59 58 56 55 50 44 41 37 37
19 14 12 12 10 15 15 16 42 35 42 48 44 55 57 56 56 55 55 54 54 56 56 57 56 57 55 54 55 57 60 60 58 57 55 58 59 58 57 57 56 55 52 50 47 43 42 43 39
16 16 14 12 11 13 12 24 46 45 46 50 50 56 58 56 55 55 54 54 54 55 55 57 57 57 54 54 54 58 59 58 57 56 58 57 56 55 54 53 52 47 45 42 43 45 41 38 37
16 18 14 14 12 15 14 35 43 44 44 45 54 56 56 56 56 55 55 55 55 54 55 57 57 56 57 58 58 58 58 56 57 57 58 57 55 53 53 52 50 48 45 43 48 42 40 38 36
20 20 19 17 16 16 16 35 38 45 45 44 54 54 55 56 56 55 54 54 54 55 55 57 57 57 57 56 57 58 57 55 57 57 57 57 56 53 53 53 50 49 49 49 45 42 41 39 37
24 23 21 19 18 15 17 26 38 45 45 47 53 53 55 55 55 55 54 54 54 54 55 56 57 56 55 54 55 56 57 56 56 57 57 56 57 53 54 53 51 51 50 50 46 45 42 41 37
24 22 18 19 19 18 23 24 39 47 49 51 52 52 53 54 55 55 54 54 54 54 54 55 56 54 55 55 55 54 55 55 55 57 57 56 57 55 55 53 53 52 52 50 48 45 43 40 38
23 20 18 16 17 20 24 32 38 42 45 46 51 51 51 54 54 53 53 53 54 54 55 55 56 55 56 54 53 52 52 53 54 55 56 57 57 56 56 54 54 52 51 48 45 44 42 41 39
21 21 19 16 22 24 27 30 37 40 41 44 49 49 50 53 54 53 52 52 53 54 54 53 54 54 54 53 49 52 52 53 53 56 56 56 56 57 56 56 54 51 49 49 48 45 47 44 39
22 21 19 18 22 23 24 28 34 38 41 44 44 49 50 51 53 54 52 52 52 53 52 50 52 52 53 51 48 51 50 52 52 53 56 56 56 57 56 56 54 52 49 49 48 47 47 44 42
23 21 19 22 23 21 18 18 36 40 37 40 46 47 48 51 52 53 52 52 51 48 48 48 49 49 53 53 53 53 52 52 52 52 54 57 56 57 57 56 55 52 50 51 48 47 47 44 43
21 19 19 21 23 24 21 19 33 34 36 39 43 46 45 51 51 51 49 50 49 45 46 46 49 51 53 52 52 51 53 52 51 51 51 58 59 59 59 58 58 54 52 51 50 48 47 44 46
19 20 20 23 23 18 22 18 23 26 31 34 40 44 44 49 51 50 48 48 49 49 49 49 49 52 53 52 51 50 49 50 50 50 52 57 59 60 60 59 59 56 54 53 52 52 50 47 46
20 25 23 25 23 20 20 24 28 30 26 29 34 42 43 46 46 47 47 48 48 49 51 51 51 51 52 52 51 50 49 49 50 50 50 58 59 59 59 59 58 57 55 53 52 52 51 51 51
21 22 24 24 23 19 20 26 27 28 23 27 31 39 41 44 46 47 47 48 49 50 50 50 50 50 50 51 52 52 50 48 47 50 51 55 59 59 59 59 58 57 54 53 52 53 52 51 49
21 20 19 20 21 19 29 28 25 27 27 26 28 37 37 41 45 46 48 47 48 49 50 50 50 50 49 49 51 52 52 50 47 48 51 56 57 58 58 57 56 55 53 52 53 52 51 48 47
21 21 20 19 21 28 31 24 22 27 27 25 28 37 40 38 41 45 46 48 48 48 49 50 50 51 50 50 51 52 53 52 52 50 52 56 57 57 57 56 54 53 53 52 51 50 47 45 45
23 21 25 30 33 31 32 28 24 25 23 21 22 33 38 40 39 42 46 47 49 49 49 51 50 50 51 51 55 54 53 55 53 52 55 56 57 57 56 56 54 52 51 51 49 47 46 45 44
22 26 25 32 26 28 27 28 20 25 26 20 19 22 30 35 38 40 42 48 49 50 52 52 52 51 51 52 53 56 55 55 57 55 57 57 58 57 56 55 53 51 50 48 47 45 44 43 43
21 20 25 31 30 24 21 24 29 26 25 18 23 25 29 31 32 36 40 45 49 50 51 53 53 53 53 53 54 54 56 58 58 58 58 59 58 55 54 52 51 49 47 46 45 44 43 41 40
22 20 25 27 25 27 27 24 28 28 23 24 23 25 27 33 34 36 40 42 47 49 50 53 54 54 54 54 55 56 58 59 59 59 58 57 55 54 53 50 48 47 46 45 44 42 41 40 40

GFSSGP_sfc_30mbdewp_072.txt.gz
Dewpoint
52 48 44 36 20 19 16 15 17 16 16 38 38 40 54 56 52 45 60 60 61 64 68 69 69 69 68 68 68 67 67 66 67 68 68 68 67 66 65 64 63 61 59 57 60 60 60 60 59
45 44 40 32 20 15 14 17 16 30 36 40 38 48 51 53 59 57 60 63 61 63 63 66 64 64 63 67 67 67 67 66 67 68 68 67 66 65 64 63 62 61 58 55 58 59 59 57 57
40 41 32 26 19 16 16 17 16 40 40 38 37 53 51 45 58 61 63 61 63 61 62 63 64 61 63 67 67 67 67 66 67 68 68 67 65 64 64 63 62 60 57 55 58 58 56 55 58
32 29 25 17 13 15 16 15 16 38 42 41 43 42 53 54 56 61 63 63 62 63 63 61 62 60 64 66 67 67 66 67 68 68 67 66 65 65 64 63 61 59 57 55 56 56 55 55 59
35 27 20 17 16 16 16 15 15 33 38 41 42 43 45 55 61 61 62 63 64 64 64 66 62 62 62 62 63 67 66 67 68 68 66 65 65 64 63 62 61 59 57 54 53 54 54 54 58
30 24 18 16 16 17 14 25 35 35 42 43 43 46 49 56 56 59 62 61 61 61 63 64 63 63 62 60 62 66 66 67 67 67 65 65 65 64 63 62 61 60 58 56 53 53 53 53 56
27 22 18 18 17 13 18 28 32 33 40 44 46 43 50 53 58 60 60 61 60 60 61 62 62 61 60 59 62 64 63 66 67 66 65 65 64 63 62 62 61 59 57 55 52 49 49 49 51
25 23 20 19 16 12 14 26 31 35 46 51 53 47 40 55 58 58 59 59 58 58 59 59 59 60 59 59 59 60 59 62 65 65 65 64 63 63 62 61 60 59 56 53 49 45 45 45 51
22 19 17 17 14 11 18 25 37 42 42 51 55 55 56 57 57 57 57 57 57 57 57 59 59 59 58 58 59 58 59 59 64 64 63 62 62 61 59 60 60 58 56 52 46 47 42 40 49
20 17 17 18 14 12 17 28 31 41 46 47 52 56 57 57 56 56 55 55 55 55 56 57 57 57 57 57 57 57 58 60 61 61 60 60 59 59 59 60 59 57 55 50 45 45 44 40 38
21 19 20 19 17 13 14 35 42 41 41 48 46 53 56 56 56 55 55 55 55 55 55 56 57 57 55 55 54 57 59 60 59 58 59 59 59 59 58 57 57 55 51 47 42 42 43 37 36
17 18 17 17 17 13 13 42 40 43 43 49 50 54 55 56 55 55 54 54 54 55 55 56 56 56 55 54 54 57 58 59 58 58 58 58 57 55 54 53 50 47 45 42 43 43 39 37 36
17 16 18 19 19 15 22 37 42 43 49 52 55 56 56 56 55 55 54 55 55 54 56 56 56 54 55 55 54 56 59 57 56 58 57 56 54 53 52 50 46 44 42 45 45 40 38 37 35
18 22 24 24 21 18 21 39 40 42 46 51 55 55 56 56 55 55 54 54 54 55 56 57 56 55 55 56 58 58 57 57 56 58 57 55 53 52 50 48 46 45 43 48 43 41 38 37 35
25 22 23 22 21 20 27 31 36 42 46 52 52 54 54 56 56 54 54 54 54 55 56 56 57 57 57 57 58 57 55 57 56 57 57 55 53 52 52 49 49 48 47 49 44 43 40 38 36
22 23 19 20 20 20 19 17 35 44 44 51 52 52 53 55 55 55 54 54 54 55 56 56 57 57 56 55 56 56 56 57 56 57 57 56 53 53 53 50 50 50 51 49 46 44 42 39 37
23 19 19 21 24 21 20 22 37 47 49 50 51 52 53 54 54 55 55 54 54 55 55 56 56 55 54 53 54 55 55 56 56 57 57 56 54 55 54 52 52 52 51 50 47 45 43 40 39
18 20 22 21 22 18 26 28 37 44 46 50 51 52 52 53 54 54 54 53 54 54 55 56 54 54 54 54 53 53 53 54 55 56 57 56 57 56 54 53 53 52 51 49 46 44 45 42 40
22 22 21 22 23 24 24 29 35 40 43 45 48 49 51 53 54 53 53 53 53 53 54 54 53 54 54 51 51 51 51 53 53 55 55 56 57 56 55 54 54 52 50 48 46 45 44 45 42
22 22 22 23 23 23 20 19 35 40 41 44 47 48 49 52 53 52 52 52 53 53 53 52 53 53 54 52 49 51 51 52 53 54 55 56 56 57 56 55 54 51 50 49 48 47 46 46 44
22 22 22 21 21 24 22 21 32 37 40 43 45 44 49 51 52 52 52 51 52 52 52 50 52 52 52 53 49 51 52 51 52 51 53 56 56 56 56 56 55 53 51 50 49 48 46 45 46
21 23 22 20 23 20 22 18 30 33 35 39 41 44 46 50 52 52 51 51 51 50 50 49 49 48 51 53 49 50 47 49 49 51 51 54 57 57 57 57 56 54 53 51 51 49 48 47 46
23 25 23 24 23 22 22 21 23 28 28 32 39 43 46 50 51 51 50 50 50 48 47 46 47 48 50 53 50 51 51 52 51 51 50 52 57 58 58 58 57 56 55 53 53 53 50 49 48
26 24 24 25 23 20 22 23 22 24 27 28 38 42 46 49 50 51 49 49 45 44 45 46 46 48 50 53 52 51 50 50 50 51 50 52 57 58 59 59 58 58 56 54 54 53 52 51 50
25 21 18 18 19 19 29 28 25 24 27 28 37 42 45 49 50 50 48 47 46 45 45 47 48 48 50 52 52 51 50 50 49 50 50 50 54 57 58 58 58 57 56 55 53 52 52 51 50
22 21 19 16 18 21 31 23 25 27 29 29 33 42 45 47 48 49 49 47 47 48 48 49 49 49 51 52 52 52 53 51 51 49 50 51 52 55 58 58 57 56 55 53 52 52 50 49 48
21 20 24 27 34 30 28 31 28 26 26 26 27 38 42 44 46 47 47 47 48 48 49 51 50 50 50 50 50 50 51 53 52 51 50 52 55 56 57 57 56 55 54 52 51 50 48 47 46
22 26 25 30 23 23 26 28 24 24 23 22 28 37 38 42 45 46 47 47 48 49 49 50 50 50 50 50 50 50 50 54 54 53 53 54 56 56 56 55 54 53 52 51 50 48 46 46 45
22 23 27 31 31 26 22 22 28 26 23 21 21 31 36 39 40 43 46 48 48 48 49 50 50 49 50 50 51 50 51 52 55 55 56 57 57 57 57 57 54 53 52 50 48 46 45 45 43
24 21 23 26 30 31 28 23 28 27 24 25 25 29 32 35 38 40 43 46 47 49 49 48 50 50 51 54 55 56 56 57 56 57 58 58 56 55 56 54 53 51 49 48 46 45 44 43 42

GFSSGP_sfc_30mbdewp_075.txt.gz
Dewpoint
52 50 43 33 18 19 17 15 17 16 22 38 41 47 49 55 48 39 60 61 63 67 69 69 69 69 68 68 68 68 68 68 68 67 67 67 66 66 65 64 63 63 62 61 61 61 62 61 61
45 44 37 27 18 13 13 17 15 22 36 40 48 53 50 52 57 56 59 61 63 65 65 67 65 66 68 68 68 67 67 68 68 68 67 66 66 65 64 63 62 63 62 61 61 60 60 61 61
40 39 29 24 18 15 14 17 16 28 37 39 39 53 50 50 58 61 63 64 62 63 63 65 63 62 63 64 64 66 66 67 68 67 67 66 65 64 63 61 61 62 62 60 58 57 59 61 60
32 28 22 18 14 16 17 16 17 23 40 40 42 41 52 53 58 60 62 63 60 62 62 64 64 63 65 65 65 63 64 65 67 67 66 65 65 64 63 61 60 61 61 58 55 56 59 60 59
34 26 20 17 16 16 16 17 16 18 36 40 42 38 46 54 60 60 62 63 64 63 64 61 63 63 62 62 62 64 64 66 67 67 66 65 64 63 62 60 60 61 60 55 55 59 61 59 58
28 23 19 15 16 18 18 17 29 25 36 42 44 45 48 58 55 60 61 60 61 62 64 62 62 62 62 61 61 62 64 63 66 66 65 65 64 63 62 60 59 58 58 56 56 60 59 58 56
25 21 18 17 18 18 16 20 28 36 42 43 47 40 51 55 58 60 60 60 60 61 62 62 63 62 62 62 62 61 63 64 66 65 65 64 64 63 62 61 59 58 55 54 53 57 59 57 56
26 24 21 20 18 15 17 23 38 41 40 50 53 44 43 54 57 59 59 58 58 59 59 60 61 61 60 61 64 64 64 63 63 63 65 64 63 62 61 60 58 55 52 52 52 53 56 57 56
22 19 18 18 16 15 15 20 39 44 44 51 53 54 55 56 58 58 57 57 57 57 58 59 59 59 59 60 61 62 63 63 63 61 64 62 62 61 59 59 57 54 52 52 50 52 57 58 56
22 19 18 19 18 18 18 23 35 40 42 44 51 56 56 56 56 55 55 54 55 55 57 58 58 58 58 58 58 59 61 62 61 59 61 60 59 59 59 58 56 53 51 51 51 47 51 53 54
21 19 20 20 19 19 18 23 41 40 39 41 41 50 55 56 55 55 55 55 54 55 56 57 57 57 57 56 56 57 60 60 60 60 60 58 59 60 58 57 54 50 46 42 43 39 37 42 46
19 19 18 18 17 18 17 31 38 41 36 49 47 53 55 54 54 54 54 54 54 55 55 57 57 56 55 55 55 58 59 60 59 59 58 58 57 56 55 53 50 44 41 42 41 39 37 37 44
18 18 18 18 21 23 31 33 38 39 48 52 53 54 54 54 55 55 55 55 55 54 55 56 56 55 54 55 56 57 59 59 59 59 57 56 54 53 52 49 45 42 42 44 40 38 37 35 39
20 19 22 24 23 23 27 37 42 39 49 47 54 54 54 54 54 54 54 54 54 55 56 56 55 55 54 55 56 56 58 57 59 58 56 55 53 52 49 46 43 42 45 45 40 38 36 35 34
23 21 21 20 22 21 30 30 34 38 45 46 54 55 55 55 54 53 54 54 55 55 56 56 54 55 55 54 55 57 57 56 56 57 55 54 52 51 48 46 44 44 47 44 42 39 38 36 35
22 21 17 19 20 21 21 19 21 42 44 46 53 54 54 55 54 54 54 54 55 55 56 56 56 55 56 55 56 57 57 56 56 56 55 53 52 51 49 47 46 47 48 45 43 41 39 36 35
22 14 17 17 22 22 20 19 25 43 42 45 52 52 53 54 54 54 54 54 55 55 56 56 56 55 57 57 56 57 57 56 57 56 55 53 52 53 50 48 49 50 49 47 45 43 41 38 37
17 19 20 19 22 22 22 21 30 42 44 46 51 52 52 54 53 54 54 54 54 55 56 56 56 56 56 55 55 55 55 56 57 56 56 55 53 53 52 51 51 51 50 49 47 44 43 41 38
21 22 21 21 22 23 22 23 29 38 45 46 49 51 51 53 54 54 54 54 54 55 55 56 55 55 54 54 53 53 53 54 56 56 56 56 54 54 54 53 52 52 50 49 48 45 44 43 42
22 21 20 22 23 23 22 21 27 37 39 42 45 49 51 53 53 52 52 53 53 53 54 55 54 54 53 52 53 53 52 53 54 55 56 56 57 55 55 54 53 52 50 49 47 46 45 44 43
23 21 20 20 23 23 23 21 27 35 40 41 43 48 49 52 52 52 51 52 52 53 53 54 53 53 54 51 50 51 51 52 52 53 54 55 56 56 56 55 53 52 51 49 48 46 46 45 45
20 21 23 23 22 19 22 18 21 29 35 39 41 44 47 51 53 52 52 51 51 52 53 52 53 53 54 52 49 50 50 49 51 51 52 54 56 55 56 56 55 53 52 50 49 48 47 47 46
22 22 23 23 23 23 22 21 21 28 31 33 37 40 44 50 52 51 51 51 51 52 52 51 51 52 52 52 50 49 48 48 49 51 51 51 54 56 56 56 55 54 53 52 51 50 49 49 48
26 25 25 26 24 21 22 22 21 23 26 29 31 37 42 48 51 51 51 51 51 51 51 50 49 49 49 50 52 49 50 50 50 50 49 51 52 55 56 56 56 56 55 53 52 52 51 50 49
26 23 20 18 19 19 25 27 25 25 26 28 28 34 40 46 50 51 50 50 50 49 48 48 47 47 47 49 51 51 50 51 50 51 50 50 51 53 55 57 57 57 56 55 54 54 53 51 50
23 24 21 17 17 18 30 24 24 28 30 30 30 34 39 45 50 50 50 49 48 47 46 46 46 46 46 48 50 52 51 51 51 51 51 51 51 52 55 57 57 58 57 56 55 54 53 51 51
21 21 23 25 33 28 25 27 29 27 26 28 29 37 41 45 49 50 50 49 47 44 44 45 45 45 45 47 50 51 52 51 50 51 51 51 52 52 55 57 57 57 56 55 54 53 52 50 49
21 27 23 28 20 21 24 27 24 24 24 24 28 33 41 45 48 50 50 49 48 45 44 44 45 46 47 48 50 51 52 53 53 52 52 51 52 55 56 56 56 55 55 54 53 51 50 49 48
23 23 28 27 26 19 21 22 29 28 27 22 26 32 40 44 45 47 49 50 49 48 47 47 47 48 49 49 50 51 51 51 53 54 54 53 55 56 56 56 56 55 53 52 51 50 48 48 46
23 23 28 23 28 29 25 24 29 29 29 24 22 32 39 42 44 46 47 47 48 48 48 49 49 50 52 53 52 52 52 51 52 54 55 56 56 57 57 57 57 55 53 52 50 48 47 46 45

GFSSGP_sfc_30mbdewp_078.txt.gz
Dewpoint
52 45 41 29 17 18 15 14 17 16 24 36 48 44 46 51 44 33 60 62 63 68 68 68 68 68 68 66 67 68 69 69 68 68 68 68 67 66 65 65 64 64 62 61 60 60 60 60 61
44 43 35 25 14 11 11 17 16 17 30 40 46 51 50 49 57 56 59 62 63 66 68 67 67 66 66 64 64 65 68 68 68 68 68 67 66 65 65 64 64 63 62 60 59 61 59 59 60
41 38 28 21 18 12 12 16 16 20 30 38 37 52 50 49 59 60 62 63 62 64 65 65 65 63 64 64 64 64 67 67 68 67 67 67 66 65 64 64 64 63 63 63 62 62 61 59 60
31 28 22 18 13 16 16 16 18 17 28 41 41 36 50 53 58 60 61 62 63 63 64 65 64 63 62 62 62 63 64 66 67 67 66 66 65 64 64 64 63 63 61 60 61 62 60 59 58
31 25 20 17 16 16 17 17 17 19 31 40 41 35 44 53 60 58 61 62 63 62 63 65 63 62 62 63 62 62 63 65 65 66 65 65 64 63 63 63 63 61 59 58 61 60 59 58 57
28 23 18 12 15 17 19 19 19 27 33 42 41 42 45 58 55 59 60 60 62 62 63 64 64 64 63 64 65 64 63 64 65 66 65 65 64 62 62 63 61 59 59 61 61 60 58 57 56
23 20 17 17 16 18 18 18 24 31 38 40 46 41 49 55 57 60 60 60 60 61 63 62 63 63 62 62 63 64 63 63 65 65 65 64 63 62 62 62 60 58 61 62 61 59 58 57 56
26 24 21 20 17 16 17 21 37 38 36 49 51 43 42 53 57 59 59 58 59 59 60 62 62 61 61 62 62 61 63 62 63 64 64 64 63 62 60 59 58 57 60 61 59 58 57 57 56
23 20 19 18 17 15 16 19 37 44 45 48 53 54 54 55 58 57 57 57 57 58 59 60 60 59 59 61 64 63 64 62 63 62 63 62 61 60 58 56 56 55 56 59 60 58 57 56 56
22 20 19 20 19 18 19 19 20 37 41 41 49 54 55 56 57 56 55 55 56 56 57 58 59 58 59 59 62 63 62 62 62 61 61 61 60 57 57 55 55 54 55 57 59 59 57 55 55
21 19 20 20 20 20 18 19 33 36 33 38 39 52 54 55 55 55 55 55 55 56 57 58 58 58 57 57 60 61 60 61 61 59 60 58 58 58 57 54 52 52 51 53 56 56 51 53 52
22 21 21 19 18 18 18 25 33 39 30 46 46 53 54 54 54 55 55 55 55 55 56 57 57 57 56 56 58 60 60 59 59 60 58 58 57 55 54 51 47 44 43 41 42 43 46 48 48
19 19 19 19 19 22 25 25 32 38 40 50 53 55 53 54 54 55 54 55 55 55 55 56 56 55 55 55 58 59 59 59 59 59 57 56 54 53 50 46 42 42 43 40 38 39 44 46 47
22 19 21 23 22 23 22 29 40 32 47 51 53 53 53 54 54 54 54 54 55 55 55 56 55 55 55 56 57 58 59 59 59 58 56 54 52 51 48 43 41 43 43 40 38 36 40 43 44
24 23 22 21 19 19 25 25 31 35 49 46 52 52 52 54 54 53 54 53 54 55 56 55 55 55 55 56 56 58 58 59 59 57 55 54 52 49 46 43 42 44 44 41 38 37 36 37 38
23 21 17 17 21 21 23 20 22 30 44 45 52 52 53 53 53 53 53 53 55 56 56 55 55 55 55 55 55 57 57 58 58 56 54 53 51 49 46 43 43 46 46 42 39 38 36 36 35
22 17 16 15 20 22 21 21 23 41 43 43 50 53 52 52 53 53 53 53 55 56 56 56 55 55 56 55 57 58 58 57 57 57 54 52 51 50 47 45 45 47 47 44 42 41 38 36 35
20 18 20 18 19 22 20 22 23 33 41 42 49 52 53 53 52 54 53 54 54 56 56 56 56 56 57 57 57 58 58 57 57 56 54 53 52 51 48 48 48 49 49 46 45 42 42 39 37
20 19 20 22 22 20 20 22 23 29 42 43 47 51 52 53 54 53 54 54 54 55 56 56 55 56 56 56 56 56 55 56 57 56 55 53 52 52 50 49 50 50 49 48 46 45 42 42 40
24 22 20 21 21 21 22 21 22 29 35 42 44 49 51 52 53 54 54 54 53 54 55 55 55 55 55 54 56 56 54 55 56 56 56 54 53 52 52 51 50 51 50 49 48 46 44 43 41
25 24 22 20 21 23 22 21 21 28 36 39 42 46 50 52 52 53 53 52 53 53 54 55 54 55 54 54 55 54 54 54 54 55 55 55 55 53 53 53 52 52 51 50 48 47 45 44 44
22 24 23 22 21 17 22 19 21 22 27 35 38 42 47 51 53 52 52 51 51 52 52 54 54 54 54 53 53 52 52 52 53 53 54 55 56 56 54 54 54 53 52 50 49 48 47 46 44
23 22 22 21 20 21 22 21 21 25 23 25 29 37 44 50 52 52 52 51 51 52 53 53 53 53 54 52 51 51 51 50 51 52 53 54 55 56 56 55 55 54 52 51 50 49 47 47 47
26 24 24 25 25 22 23 22 21 22 24 25 28 32 40 47 51 52 52 52 51 52 52 52 53 52 53 52 50 50 49 49 49 50 51 52 52 54 55 55 55 55 54 53 52 51 49 49 48
26 23 20 20 21 21 23 22 22 23 25 26 26 28 34 45 51 51 51 51 50 51 51 51 51 51 52 52 51 50 49 49 49 49 49 50 51 51 54 55 55 55 55 54 53 52 51 50 50
26 24 21 18 18 19 28 22 23 27 29 30 30 30 35 44 50 51 51 50 50 50 50 51 50 50 49 51 51 51 50 50 50 50 50 50 50 51 53 54 55 56 56 55 55 54 53 53 52
23 24 24 25 31 25 24 26 27 26 26 26 27 30 33 43 49 50 50 50 50 50 49 49 49 49 48 49 50 49 52 51 50 51 51 51 52 52 52 54 55 56 56 56 55 54 54 53 54
22 27 23 26 20 21 23 25 20 21 21 25 25 30 35 42 48 50 51 50 49 49 48 48 48 48 47 47 48 49 50 52 51 51 51 51 51 52 53 54 55 55 56 55 55 55 54 53 52
22 20 27 25 24 18 18 20 27 24 28 29 27 27 34 40 46 49 50 50 49 47 46 47 47 47 46 45 46 48 50 52 52 52 51 51 52 52 53 54 55 55 55 54 54 54 52 51 50
21 21 24 22 25 27 23 20 27 28 29 29 25 24 33 38 44 48 50 50 49 47 45 45 46 46 47 48 48 49 50 51 52 52 52 52 52 54 54 55 55 55 55 54 53 52 50 50 48

GFSSGP_sfc_30mbdewp_081.txt.gz
Dewpoint
52 42 39 29 16 18 14 15 17 16 19 29 47 43 44 50 42 33 61 63 64 68 69 69 69 69 69 69 70 70 69 69 69 68 68 68 68 68 67 66 65 64 63 61 60 60 62 61 61
45 41 33 24 13 10 11 17 16 17 23 38 53 52 49 45 57 56 59 62 63 64 69 68 69 68 68 68 68 69 69 69 68 68 68 68 67 66 66 65 65 64 62 60 60 60 61 61 61
40 34 29 21 18 10 11 16 16 17 21 29 37 50 50 48 58 59 62 62 63 64 66 68 67 66 66 65 65 66 68 67 68 68 68 67 66 66 66 65 64 63 61 59 59 60 60 60 61
31 28 23 18 13 17 16 17 18 18 31 40 39 37 50 53 58 60 61 62 63 64 65 66 65 66 66 66 63 63 64 65 66 68 67 66 66 66 65 64 63 63 62 63 59 60 60 60 60
30 25 20 18 17 18 18 18 18 19 24 39 41 34 41 52 58 58 60 61 62 64 65 65 64 65 63 63 64 64 63 66 65 67 67 66 66 65 65 64 64 64 63 62 61 60 59 59 59
29 24 17 10 14 17 19 20 19 27 31 41 40 40 43 57 55 57 60 60 62 63 63 64 63 62 63 64 63 63 65 64 65 65 66 65 65 65 64 64 63 62 63 63 61 59 58 58 57
26 23 16 16 15 18 19 19 23 25 33 37 45 38 45 54 56 59 59 60 61 62 63 64 64 62 64 63 64 63 63 64 64 65 65 64 64 64 64 62 60 61 63 62 61 59 58 57 57
25 22 20 19 17 16 18 19 34 35 28 49 47 39 40 52 56 59 59 59 60 60 63 63 63 62 62 63 62 64 64 63 64 64 63 63 63 64 62 60 62 62 63 61 60 59 58 58 57
24 22 19 19 19 17 17 19 29 44 41 47 51 52 54 56 57 58 57 58 58 59 60 62 61 60 61 62 63 62 64 63 64 64 63 62 62 61 59 59 62 63 62 60 59 58 58 57 57
23 21 19 21 20 18 20 19 19 31 39 40 49 54 54 56 56 56 56 56 57 57 58 59 60 59 60 61 62 63 62 62 62 64 62 61 60 58 57 58 61 62 60 60 59 58 57 54 52
22 19 22 20 20 20 19 19 25 32 27 32 37 49 53 54 56 55 55 56 57 57 57 58 59 59 59 60 62 63 63 62 63 62 61 59 58 56 55 56 57 59 60 57 56 55 51 51 50
21 22 21 21 21 21 19 22 28 36 27 42 42 51 53 54 54 54 55 56 56 56 57 58 58 57 58 59 60 60 62 61 61 61 59 57 56 54 53 51 52 53 56 57 55 53 52 51 49
22 22 21 21 20 19 22 22 24 30 35 48 52 52 53 53 54 55 55 55 56 56 56 57 57 56 57 57 59 60 60 60 60 59 58 55 52 51 50 48 45 47 50 53 51 51 51 50 49
24 21 20 22 24 24 22 25 37 26 41 49 52 52 52 53 53 54 54 54 55 56 56 56 56 56 56 57 59 59 59 59 59 58 56 54 51 48 46 44 44 44 45 47 48 49 49 48 47
25 23 24 23 22 21 23 24 30 32 47 49 51 52 52 52 54 52 53 54 55 56 56 55 55 56 56 57 59 59 59 58 58 57 55 53 49 45 44 43 45 44 42 42 44 46 48 47 46
24 23 19 19 21 21 23 14 23 31 43 47 51 51 50 52 52 53 53 54 54 56 56 55 55 55 56 56 58 59 59 59 58 56 54 53 50 45 43 43 46 47 44 42 40 42 44 43 43
23 15 17 16 19 20 23 19 24 38 41 43 49 50 50 51 52 52 53 53 54 56 56 55 55 54 55 56 58 58 58 58 57 55 53 53 50 47 43 44 48 48 45 44 41 40 39 38 38
18 19 20 17 19 22 20 19 21 29 39 40 45 50 51 51 52 53 53 53 54 55 56 56 55 55 56 57 58 58 58 58 58 54 52 52 51 48 46 46 49 49 47 45 43 41 43 40 37
22 19 17 19 22 21 19 19 19 25 39 41 44 48 51 53 53 53 53 53 54 55 56 56 55 55 56 56 56 56 56 57 57 56 54 53 51 50 49 48 48 49 48 48 48 45 44 41 41
22 20 18 21 22 22 19 20 22 25 29 38 42 46 49 52 53 53 54 54 53 54 56 56 55 55 55 56 56 56 57 57 56 57 55 53 53 52 50 50 48 49 49 50 48 46 44 44 43
26 24 23 21 22 22 21 19 22 25 33 38 43 44 49 50 52 53 53 54 53 54 55 56 55 55 55 56 57 56 56 56 55 54 53 54 53 52 51 51 50 51 51 50 50 49 48 45 45
21 25 25 24 22 16 23 16 21 22 24 31 38 44 47 50 52 52 52 53 53 53 55 55 55 55 55 56 55 54 53 53 54 53 52 50 55 53 52 52 52 52 52 51 52 51 49 49 47
22 25 24 24 22 21 15 17 21 25 24 24 27 39 44 48 52 52 53 52 52 52 54 55 55 55 54 54 55 54 54 53 52 53 52 54 55 54 52 53 54 54 54 53 53 52 51 51 49
27 24 24 26 23 18 18 20 21 22 24 25 27 31 41 46 50 52 53 53 51 51 52 53 54 54 54 53 54 53 53 53 53 52 52 54 55 56 56 55 54 55 55 55 54 54 53 52 51
25 24 19 21 21 14 23 23 21 25 25 25 26 27 36 45 49 51 52 52 51 51 51 52 53 53 54 53 53 53 53 53 52 53 53 53 54 55 56 56 57 57 56 56 56 55 54 53 52
25 24 17 11 16 15 25 22 21 27 28 30 31 31 33 43 48 50 51 52 52 51 51 51 53 53 54 54 52 51 52 52 51 52 52 53 53 53 54 55 56 56 56 56 56 56 56 55 54
26 23 23 22 30 25 24 26 27 27 27 27 27 28 31 40 47 49 51 51 52 51 52 52 52 52 53 53 53 52 51 51 51 51 52 52 53 52 53 54 55 55 56 56 56 56 56 55 55
24 27 23 23 16 16 22 24 19 22 22 26 30 30 31 38 46 49 50 51 51 51 51 52 52 52 52 52 53 52 52 52 51 52 52 52 53 53 53 53 54 54 55 56 56 56 56 56 55
20 22 26 24 23 15 17 21 27 24 25 29 30 30 30 40 45 49 50 50 51 51 50 50 51 50 51 51 51 52 52 52 52 52 52 52 52 52 53 53 54 54 55 56 56 56 55 54 54
21 20 22 23 25 26 22 20 26 28 30 30 28 28 27 35 44 48 50 50 50 50 49 49 49 49 50 50 50 51 51 52 52 51 51 52 52 52 52 52 53 54 55 55 55 55 54 53 52

GFSSGP_sfc_30mbdewp_084.txt.gz
Dewpoint
51 36 35 30 16 9 5 9 14 14 17 21 30 34 36 39 30 28 61 63 65 67 66 67 69 69 69 70 70 70 70 70 69 69 68 68 68 68 68 67 67 66 64 63 63 62 59 60 61
37 38 34 24 10 2 6 13 14 15 18 26 34 44 44 33 49 53 59 63 64 65 68 67 69 69 69 70 69 69 70 69 69 68 68 69 68 68 67 66 65 64 63 61 63 62 61 61 61
38 39 26 16 8 3 6 12 16 18 19 22 29 42 41 39 53 56 62 63 63 64 67 67 69 69 69 70 69 67 66 69 68 68 68 68 68 67 66 65 64 63 62 62 62 62 61 61 61
33 27 22 11 4 9 12 14 17 19 25 24 26 32 44 51 55 60 62 62 60 62 66 68 68 68 68 67 66 64 67 66 66 66 66 68 67 67 66 65 64 63 62 61 60 61 62 61 61
28 23 12 9 6 8 16 15 18 19 22 33 34 27 36 50 57 59 59 60 60 62 66 67 66 67 67 65 65 64 66 65 63 65 66 66 67 66 65 64 63 63 62 61 60 60 60 60 60
21 22 9 4 4 7 15 16 19 21 25 35 36 34 36 54 54 57 59 60 62 62 65 65 65 65 65 65 64 64 64 65 65 63 66 66 66 66 65 64 63 64 63 62 61 60 59 59 59
20 17 8 7 4 5 13 18 19 20 24 25 38 29 39 52 55 58 59 60 62 63 64 65 65 64 63 65 64 65 66 66 66 65 65 65 66 65 65 65 64 64 63 61 60 60 59 58 57
22 17 10 8 4 5 15 17 19 24 23 41 40 24 28 52 57 58 58 59 60 62 63 64 64 64 63 64 64 62 64 64 64 65 65 64 64 64 64 63 64 64 62 61 60 59 59 58 58
26 15 10 9 9 7 16 18 21 32 31 35 40 39 49 54 56 56 58 58 59 60 62 63 63 63 62 63 64 64 62 64 63 62 63 63 62 62 61 61 64 63 62 60 60 59 58 58 57
21 14 12 11 11 13 16 18 17 19 19 25 35 46 52 54 54 53 54 55 57 59 59 61 61 61 62 62 63 63 65 63 63 63 63 62 62 61 59 62 63 62 60 60 59 59 58 53 50
17 14 14 16 16 17 16 17 18 20 19 21 24 29 49 52 53 53 53 53 55 58 59 59 60 60 60 61 62 62 63 63 63 63 62 62 62 60 60 61 61 60 57 53 55 55 49 47 46
16 17 14 14 13 17 15 17 18 21 23 23 33 36 45 50 52 52 53 53 53 57 58 59 59 59 59 60 62 62 62 63 63 61 62 60 59 57 58 58 58 57 53 52 51 49 49 48 46
20 13 17 18 19 20 19 19 18 18 20 24 38 44 46 50 51 53 52 53 54 55 57 58 58 58 58 59 61 61 63 62 62 60 60 59 57 55 55 57 58 56 54 53 51 51 50 48 46
18 20 19 19 19 20 20 17 18 21 21 29 39 41 45 49 50 52 53 52 54 55 57 57 57 57 58 59 60 59 61 61 59 59 58 58 57 53 51 52 53 55 56 54 51 50 48 44 44
23 20 19 20 20 20 18 15 14 21 31 34 38 43 45 49 50 51 51 52 54 55 57 57 57 57 57 59 59 59 60 59 58 58 56 55 53 51 48 47 48 50 52 52 50 50 46 44 42
21 20 18 18 17 17 18 9 8 18 31 31 37 43 46 49 50 51 51 52 54 55 56 57 56 56 57 58 59 58 59 58 57 56 55 51 51 48 45 45 47 46 48 49 49 46 45 43 41
17 16 16 18 18 15 18 9 14 29 29 30 35 42 45 47 49 51 52 53 53 54 56 56 56 56 57 59 58 58 58 58 57 55 52 49 48 46 45 45 46 44 44 43 43 42 42 41 40
13 17 19 17 17 17 13 13 13 19 27 29 34 42 43 45 48 51 52 53 53 54 56 56 55 55 56 59 58 58 57 57 57 53 50 47 45 46 45 45 46 42 40 42 40 41 41 39 37
18 19 18 17 19 19 16 15 13 13 23 29 34 38 43 45 48 51 53 54 54 54 56 56 55 56 56 57 56 56 55 55 56 54 53 51 44 45 45 46 46 43 43 44 46 44 42 40 40
22 19 17 17 18 20 18 15 13 13 21 25 28 36 40 45 49 51 53 54 54 54 55 56 55 55 56 56 57 56 56 56 55 54 53 52 51 46 45 46 48 47 48 49 48 47 45 43 42
22 20 18 17 19 20 20 18 16 9 21 28 32 33 38 43 48 51 52 53 55 54 54 56 55 55 56 57 57 57 56 57 56 54 53 52 52 48 46 48 49 51 50 50 50 49 47 45 45
18 19 20 19 18 15 19 12 10 17 20 23 28 36 37 41 45 51 52 53 54 54 54 55 56 55 55 56 56 55 53 52 54 54 54 54 53 51 47 49 50 51 50 49 51 50 49 48 47
19 20 17 19 20 20 19 17 11 12 17 18 20 29 36 40 45 49 52 53 54 53 53 55 56 55 55 56 56 55 54 52 54 52 51 52 54 53 50 50 51 51 50 51 51 51 52 50 50
24 23 23 23 21 18 19 15 12 13 20 21 21 23 31 38 43 48 51 53 53 53 52 54 55 55 55 55 56 55 54 54 53 52 50 47 49 50 53 51 51 52 51 52 53 54 53 53 52
23 20 17 18 19 16 16 15 14 19 22 22 21 23 29 36 42 47 50 52 52 52 52 53 54 54 55 55 55 54 54 54 53 51 49 47 46 46 51 53 51 52 53 53 55 56 55 55 54
22 21 17 14 14 16 18 16 16 22 22 23 25 27 31 36 41 46 49 51 52 52 52 52 53 53 55 54 54 55 54 54 53 52 51 49 49 50 52 54 55 56 55 56 56 56 56 56 56
17 19 21 19 18 21 18 21 24 24 24 25 25 24 28 31 39 44 48 51 52 52 52 52 52 53 53 54 54 54 54 54 54 52 52 51 52 51 53 55 56 56 56 56 56 56 55 56 56
13 18 19 20 16 14 14 18 18 21 22 22 25 28 30 30 36 43 46 50 52 52 52 52 53 53 53 54 54 54 53 53 53 53 52 52 53 53 52 54 54 54 54 54 55 54 55 56 56
19 20 20 19 18 14 12 14 21 21 22 24 26 28 30 33 37 42 45 48 51 52 52 52 52 51 51 52 54 53 53 53 52 53 53 53 54 53 53 53 53 52 51 52 53 55 55 55 55
20 19 20 19 13 20 19 17 25 27 28 29 27 30 29 36 40 43 45 47 49 51 51 52 51 50 51 52 52 53 53 53 53 53 54 55 54 53 52 52 51 51 51 51 52 53 55 55 55

GFSSGP_sfc_30mbdewp_087.txt.gz
Dewpoint
50 37 29 26 18 12 5 5 8 10 12 16 23 27 28 31 26 31 58 62 65 65 65 67 68 68 70 71 70 70 69 70 70 69 69 69 69 69 68 68 67 66 65 64 63 63 63 63 63
37 27 30 24 11 4 2 9 11 11 15 19 24 32 30 28 36 45 53 62 62 66 68 66 68 69 69 70 69 69 69 70 70 69 68 69 69 68 68 67 66 66 65 63 62 61 62 63 63
42 30 29 20 12 6 5 11 11 14 18 17 20 29 33 31 43 49 61 62 62 64 66 68 68 69 69 68 68 68 68 68 68 68 68 69 69 68 67 67 66 65 64 63 62 61 62 62 62
30 26 22 9 5 7 9 10 13 16 18 20 19 24 34 48 46 56 60 61 60 60 65 67 68 69 69 68 65 65 65 65 67 68 68 68 67 67 66 65 65 64 64 63 62 62 62 62 62
28 22 16 12 10 7 7 11 14 15 18 24 24 20 29 47 53 57 58 60 59 61 64 67 67 68 69 69 65 65 62 65 63 62 65 65 66 66 66 65 64 64 64 63 62 62 61 61 61
18 17 14 10 7 7 6 12 15 16 19 23 30 24 27 49 51 55 58 58 60 61 63 66 66 66 66 66 65 64 65 63 62 63 64 63 65 65 65 64 64 63 62 62 62 62 61 60 60
20 16 15 12 8 6 5 12 16 17 19 19 28 25 33 49 50 57 57 59 61 62 62 64 67 65 64 65 64 64 64 64 64 63 62 60 63 65 63 64 63 63 62 62 61 61 61 60 59
19 16 15 14 10 7 7 11 15 17 17 30 29 24 22 47 55 56 57 57 59 61 62 63 65 66 64 64 63 63 63 63 61 63 61 63 64 64 63 64 64 63 62 61 60 60 60 59 57
23 17 15 13 11 9 8 14 16 19 21 20 28 29 42 52 53 54 55 57 58 60 60 63 63 64 64 64 63 63 62 63 61 63 63 60 64 62 62 62 63 62 61 60 60 59 59 58 57
21 17 15 14 12 10 9 13 14 14 15 18 22 28 40 50 51 51 52 52 57 57 59 61 63 63 63 62 62 63 62 62 62 63 63 64 64 63 61 64 63 61 61 60 60 59 57 52 50
19 17 17 15 14 11 10 10 14 15 14 16 17 21 27 45 48 49 49 50 53 56 58 60 62 62 62 62 63 62 63 63 63 63 63 63 63 62 62 63 61 60 58 55 54 53 47 45 46
17 18 16 15 13 12 11 11 10 13 15 18 19 22 31 33 45 47 48 50 51 57 57 59 60 60 61 61 62 62 63 64 63 63 62 63 62 62 62 61 59 55 54 52 50 48 48 46 45
18 16 16 12 15 14 14 14 13 14 15 16 18 20 30 36 42 46 49 50 50 54 57 58 60 59 60 60 62 62 62 63 63 63 62 63 61 61 60 59 56 53 53 52 49 49 48 46 46
18 15 17 18 16 18 17 17 15 14 15 17 19 22 28 38 43 46 50 50 50 52 57 57 58 59 59 59 60 62 61 63 62 62 62 61 60 60 58 58 55 54 53 53 51 50 47 45 45
20 19 20 19 19 19 19 18 18 18 15 13 21 26 35 37 44 46 50 50 50 52 56 57 58 58 57 60 60 60 62 61 60 59 59 58 58 57 58 57 55 55 55 54 53 50 45 43 43
22 21 19 20 20 19 19 17 18 14 12 13 25 28 35 40 44 46 49 50 51 52 55 56 57 57 58 59 59 59 59 59 58 58 57 57 55 55 55 55 56 56 56 53 52 49 45 44 42
22 19 19 18 20 18 16 15 17 15 20 21 24 27 36 41 45 46 49 50 50 52 55 56 56 56 58 59 59 58 57 57 56 56 56 55 54 54 52 52 51 53 52 52 51 49 47 44 42
17 18 16 16 19 19 17 16 17 14 20 21 24 27 35 40 43 46 49 50 51 52 55 56 56 56 58 58 58 56 56 56 55 54 54 54 53 52 50 49 51 49 48 49 47 46 46 44 41
17 15 14 18 19 18 18 19 18 16 12 13 23 25 31 38 41 46 50 51 52 53 55 56 56 56 58 57 56 55 54 54 54 53 54 54 52 49 48 47 47 44 43 43 46 46 45 42 41
18 16 17 18 19 19 18 19 18 18 17 13 15 22 29 36 41 46 50 52 53 53 54 55 56 56 57 57 56 55 54 53 53 52 51 48 48 47 47 47 46 46 45 46 47 47 44 41 43
18 19 20 18 19 19 19 19 19 19 20 18 13 21 24 32 41 46 50 52 54 53 53 54 55 55 57 58 57 55 54 55 54 53 50 48 46 45 47 51 48 50 50 51 51 50 47 45 45
19 22 20 18 18 16 18 15 18 18 14 13 14 23 24 28 39 46 50 52 53 54 53 55 55 55 56 58 56 54 51 51 51 50 47 52 51 48 47 50 51 52 51 52 52 51 51 49 47
20 20 20 19 16 17 17 15 17 19 16 15 19 23 26 29 37 44 49 51 53 54 53 55 55 55 55 56 56 55 52 51 50 50 49 50 53 53 50 49 52 52 52 53 53 52 52 50 49
24 20 20 19 17 17 19 19 18 18 15 19 20 19 21 27 35 42 48 50 52 53 53 55 55 55 55 56 56 55 54 51 52 51 51 52 53 53 52 50 51 51 53 52 53 53 53 53 52
22 20 18 18 18 17 18 17 18 18 19 19 19 20 22 26 33 40 47 49 51 52 52 55 54 54 55 55 55 56 54 53 53 51 51 50 51 52 52 52 52 53 53 52 53 55 55 55 54
20 20 18 15 16 18 19 16 16 18 19 18 21 22 25 29 33 39 45 49 51 52 52 53 53 54 55 55 55 55 55 52 53 54 51 49 49 51 52 54 53 53 53 54 54 55 56 56 57
14 18 20 17 19 20 21 20 21 21 21 22 22 22 24 25 31 37 43 49 50 52 52 53 53 54 55 55 55 55 55 55 53 53 53 50 48 47 48 51 53 54 54 55 55 56 56 56 57
7 4 12 15 13 14 14 14 14 19 21 22 22 24 25 23 27 37 41 48 50 51 52 52 53 53 54 55 55 55 55 55 55 54 53 51 49 48 49 51 53 55 55 56 56 56 56 56 57
11 8 12 16 16 12 12 11 19 20 21 21 25 27 28 29 27 34 41 46 50 51 52 52 52 52 53 54 55 55 55 56 56 55 54 54 52 51 51 52 53 55 55 55 55 56 55 54 55
16 14 13 14 15 14 14 15 19 23 23 25 25 29 30 33 32 34 40 44 49 50 51 52 51 50 52 54 54 55 55 55 55 56 55 55 54 53 53 53 53 54 54 54 54 54 53 53 54

GFSSGP_sfc_30mbdewp_090.txt.gz
Dewpoint
50 45 33 28 21 18 13 9 6 9 9 16 18 22 21 28 24 39 57 62 64 64 68 67 68 69 71 71 70 69 69 70 70 69 69 69 69 68 68 68 67 66 66 65 65 64 64 63 64
39 31 26 24 21 12 7 9 10 11 15 17 19 23 24 25 36 51 58 60 63 65 68 68 67 68 70 71 70 70 69 70 70 69 69 70 69 68 68 68 67 66 65 64 64 64 64 64 65
45 35 24 25 19 13 10 9 12 12 16 17 15 21 26 32 42 53 60 60 60 64 66 68 67 67 68 70 70 70 69 68 69 69 69 69 69 68 68 67 66 66 65 63 63 63 63 64 64
34 27 24 18 13 12 8 8 12 13 15 19 17 15 28 44 39 56 59 59 59 61 65 68 68 68 69 68 69 69 68 66 65 63 60 68 68 68 67 66 66 65 64 62 63 63 62 63 63
29 25 19 16 14 13 11 8 11 13 14 19 22 17 26 43 53 56 58 59 59 61 65 67 68 68 69 68 67 68 67 66 65 63 60 62 66 66 66 66 65 65 64 63 62 63 62 61 61
23 20 15 12 12 11 8 8 11 14 15 18 25 26 27 47 51 56 60 58 60 61 64 66 67 67 68 68 67 66 64 65 62 61 60 61 64 64 64 64 65 65 65 64 63 62 61 60 60
21 18 14 14 14 14 11 8 10 15 17 17 21 24 34 46 50 58 58 59 61 62 62 65 66 66 65 67 66 64 64 63 62 60 60 61 64 64 65 63 65 65 64 63 62 62 61 59 58
21 18 16 14 13 14 12 8 11 15 16 23 27 25 28 48 55 56 57 57 59 61 62 63 65 66 65 65 65 64 65 63 60 62 61 61 64 62 64 63 64 64 63 63 62 61 60 59 57
22 17 14 14 14 14 11 9 12 16 16 18 18 25 40 53 54 53 56 56 57 60 60 61 62 66 65 65 63 64 64 63 64 63 63 63 62 62 63 63 62 63 62 61 61 61 59 57 54
20 17 16 17 15 15 12 10 11 14 16 18 19 23 37 50 49 50 51 53 56 58 59 60 62 63 64 64 63 63 63 64 63 63 63 62 63 63 63 62 62 62 61 61 60 59 57 54 52
19 18 19 17 17 17 14 11 11 12 13 15 16 17 23 45 47 47 47 48 54 57 57 59 60 61 63 63 63 63 63 62 63 63 63 61 63 63 62 62 61 61 60 59 59 56 52 50 49
18 18 18 18 18 16 14 12 12 11 12 14 16 20 21 24 36 43 44 47 48 57 57 58 60 60 61 62 63 62 62 62 63 63 63 61 63 62 63 61 59 58 56 56 54 51 49 49 49
21 19 18 18 17 15 13 14 13 14 15 17 16 17 19 23 29 34 44 46 49 56 57 58 59 59 60 61 62 61 62 63 62 63 63 62 62 62 62 60 56 54 53 51 49 51 48 49 47
22 19 18 18 17 16 15 15 17 17 20 17 15 15 16 19 28 36 44 48 50 56 57 58 59 60 59 60 60 62 62 63 64 62 62 62 62 62 61 59 53 53 53 49 50 49 50 48 48
23 22 21 20 18 18 20 18 18 19 19 19 18 15 19 21 32 40 44 50 51 51 57 58 58 58 59 59 60 60 61 63 63 63 62 62 61 61 61 58 53 53 54 51 54 51 49 49 48
22 22 19 20 20 21 21 18 20 21 20 18 18 14 21 26 35 42 45 50 50 52 57 57 57 56 58 60 60 60 61 62 60 60 62 61 61 60 59 57 57 55 55 55 53 50 48 47 48
23 21 21 21 22 21 20 18 18 18 17 12 14 15 24 31 39 43 46 49 50 52 56 57 56 56 58 59 59 59 58 59 59 58 59 59 59 59 58 58 57 57 56 54 51 49 48 46 46
19 20 20 20 21 20 18 18 18 19 19 19 21 21 24 32 39 44 47 50 50 53 57 56 56 57 59 58 57 57 56 56 57 57 56 56 55 55 55 56 55 54 54 53 51 49 50 46 44
18 18 19 20 21 17 18 20 19 19 20 18 22 23 24 28 38 45 48 51 51 56 56 55 55 57 58 56 55 54 53 54 55 55 54 54 54 53 53 54 53 50 50 50 49 50 48 44 47
14 15 16 20 22 18 18 19 19 19 20 20 18 16 23 26 35 44 50 51 52 55 56 56 56 57 57 56 55 54 53 52 53 54 54 52 53 53 53 53 50 48 47 47 48 48 46 45 45
16 18 17 22 24 21 20 18 19 20 20 21 21 20 16 25 35 44 50 52 53 55 55 56 55 56 57 56 55 54 53 52 51 52 53 52 53 54 53 51 48 49 48 47 49 49 45 43 43
13 19 22 25 26 25 21 17 19 19 20 21 21 22 19 21 34 43 49 52 53 54 55 55 55 56 57 56 54 52 50 49 50 49 49 49 51 50 50 49 50 48 48 50 51 52 49 48 45
15 19 23 29 28 23 20 18 17 19 17 19 19 19 19 25 27 43 48 53 53 54 55 55 55 56 57 55 54 51 50 50 52 51 49 47 48 49 49 51 51 53 52 53 53 52 53 52 51
21 19 23 25 25 24 22 18 16 18 20 20 17 18 24 27 30 42 48 52 53 54 54 55 55 55 57 56 54 52 50 51 51 49 48 49 48 50 49 51 52 53 52 53 54 54 54 53 52
20 21 18 22 23 22 20 17 19 20 21 20 19 21 22 26 31 38 49 50 52 54 53 54 54 54 55 56 55 52 51 51 51 49 47 47 49 52 53 51 50 52 53 53 55 55 55 54 54
18 22 17 15 23 28 29 22 18 20 20 20 20 21 22 26 33 38 48 50 51 54 54 53 54 54 55 56 56 54 52 52 52 49 48 48 49 49 53 53 52 52 53 54 54 55 56 56 55
19 19 20 19 21 21 24 27 27 23 18 21 21 21 24 27 31 34 46 50 51 54 54 54 53 54 55 55 55 56 55 52 51 50 50 51 51 51 52 53 53 53 54 54 55 55 56 56 57
15 21 19 20 15 11 13 17 20 22 20 21 22 22 24 25 28 34 41 50 51 53 54 54 53 54 54 55 55 55 55 54 52 53 50 51 50 50 50 52 53 53 53 55 55 56 56 56 57
4 5 9 9 11 11 13 19 26 29 28 22 24 28 29 30 29 35 40 50 51 53 54 54 54 53 54 54 55 55 55 55 53 53 54 51 50 49 49 50 51 52 53 54 55 56 56 56 56
13 8 7 10 12 17 16 17 19 19 25 26 25 29 31 30 33 33 39 50 50 52 53 53 53 53 54 54 55 55 55 55 55 53 54 54 52 50 49 48 48 49 53 54 54 55 55 55 55

GFSSGP_sfc_30mbdewp_096.txt.gz
Dewpoint
55 51 41 31 25 22 19 17 17 16 18 21 23 21 23 30 29 29 60 65 66 66 68 70 70 70 69 69 68 68 70 70 70 70 69 69 69 69 68 68 68 68 67 66 66 67 67 66 67
47 44 33 26 21 17 16 20 16 16 19 22 22 24 25 47 55 59 62 66 66 67 68 68 70 70 70 69 69 68 69 69 70 70 69 69 69 69 68 67 67 67 67 65 66 66 66 66 66
42 42 31 23 22 16 15 16 16 17 18 16 17 21 29 45 57 58 61 67 67 66 67 67 69 71 70 69 69 69 70 70 70 68 67 66 67 68 68 67 67 67 67 65 65 66 66 66 65
36 37 29 22 21 23 20 19 21 16 17 17 17 17 43 52 58 61 64 65 67 68 66 67 68 70 71 70 69 69 70 69 65 65 64 63 65 65 65 67 67 67 66 65 65 66 66 66 64
34 28 22 21 20 21 21 19 16 14 15 19 18 22 44 56 60 61 63 65 65 67 67 66 66 68 70 71 70 70 70 67 64 64 64 63 63 61 62 64 65 66 66 66 65 66 66 65 64
27 26 21 19 19 21 19 18 17 15 16 23 21 35 44 59 59 60 61 63 67 67 67 67 67 68 68 70 70 70 69 66 64 64 64 63 62 62 61 60 65 64 65 65 65 65 64 65 63
29 25 20 18 17 18 19 18 15 17 16 19 27 27 51 56 60 60 60 62 65 67 67 67 68 67 68 68 68 69 69 65 65 64 64 64 63 62 60 62 65 64 65 64 65 64 64 62 60
29 26 22 20 19 18 19 17 16 17 17 20 28 33 50 53 59 59 60 60 61 64 65 65 64 64 64 67 67 68 67 65 65 65 64 62 62 62 61 64 63 64 64 64 64 64 62 59 56
29 25 22 20 18 18 19 18 18 18 16 17 20 30 41 56 58 58 59 59 59 61 63 64 64 63 64 65 66 66 65 64 63 63 62 61 61 63 62 63 65 63 63 63 63 62 61 57 56
30 25 24 23 21 20 20 19 19 14 16 16 17 43 53 57 57 55 56 57 58 59 61 62 64 63 64 65 65 64 64 63 62 62 62 61 62 62 64 64 64 62 62 63 62 61 59 55 55
26 27 27 25 23 22 21 21 19 15 13 16 17 30 55 55 55 54 55 56 58 59 60 60 62 64 64 63 63 63 64 62 62 62 61 61 62 63 63 63 63 62 62 61 60 59 55 51 51
29 27 24 24 24 22 20 20 19 17 17 16 17 24 53 54 54 53 54 55 56 58 59 60 61 62 63 63 63 63 63 63 62 62 62 61 61 62 62 63 63 62 60 59 57 55 53 50 51
27 28 27 26 24 22 21 20 19 18 18 18 20 33 49 52 53 53 54 54 57 58 59 59 59 60 61 63 62 63 62 63 62 62 62 61 61 61 62 61 61 59 58 56 54 52 51 50 51
26 27 26 26 26 25 22 21 20 19 19 19 19 19 38 50 51 50 50 52 56 58 59 58 58 59 60 61 62 62 62 62 62 62 61 62 62 61 61 60 59 58 56 54 52 50 49 49 50
26 23 24 26 25 24 24 22 21 21 21 21 21 21 20 22 43 47 46 52 56 58 58 58 58 58 59 59 60 61 62 62 62 62 61 62 62 61 59 58 57 55 53 51 51 48 48 48 50
26 27 24 25 24 24 22 20 22 22 21 21 21 22 21 21 20 28 45 54 57 57 57 58 59 58 58 58 59 60 60 62 62 62 61 62 62 61 58 57 55 52 50 50 49 48 48 48 50
26 23 24 25 26 24 23 22 23 22 22 23 23 23 22 21 21 34 51 56 57 57 58 58 58 58 58 59 59 59 60 61 62 62 61 61 62 60 58 55 52 49 48 50 49 48 48 48 49
22 24 24 24 24 24 23 22 23 24 25 27 27 24 21 20 21 44 52 56 57 57 57 56 56 58 59 59 59 59 59 60 61 62 62 61 62 60 58 55 51 46 50 52 49 48 49 49 48
25 23 23 21 22 19 17 17 18 24 28 27 27 23 20 18 31 49 54 56 56 56 56 56 56 57 57 57 56 55 56 56 58 59 61 61 61 60 57 56 53 45 51 51 50 48 48 48 48
16 16 18 18 17 16 15 18 24 26 26 27 28 26 23 22 42 50 53 56 56 55 55 55 56 56 56 56 56 55 55 55 56 57 58 61 61 60 57 55 54 48 52 50 49 48 48 47 47
8 7 8 10 13 20 24 20 20 22 28 30 30 28 24 23 42 49 53 55 55 55 55 55 56 56 56 56 55 54 54 53 53 54 55 57 60 59 58 55 54 52 51 49 48 47 46 46 47
7 8 5 4 5 7 26 16 19 22 25 28 29 28 25 23 41 49 53 54 54 54 55 55 56 56 55 55 54 53 52 51 52 52 53 55 58 59 58 56 54 53 51 49 48 47 46 45 44
10 11 9 5 11 24 28 22 19 28 27 28 28 27 24 23 38 49 52 54 54 54 54 55 56 55 55 54 53 52 52 51 52 51 52 53 55 56 56 55 54 51 50 49 49 48 46 46 46
20 18 20 24 24 21 26 23 16 25 26 27 27 26 26 24 39 48 52 54 54 54 54 55 55 54 55 54 53 52 51 51 51 51 51 52 54 54 54 53 53 51 50 49 49 50 48 47 45
18 18 15 18 20 19 23 24 22 27 28 29 29 29 29 28 35 48 52 53 54 54 54 54 55 53 54 54 52 51 50 51 51 51 51 51 52 53 53 53 53 52 51 51 51 50 51 49 48
17 19 15 14 17 18 27 25 28 32 32 32 33 33 32 31 44 49 52 53 54 54 54 54 54 53 54 53 52 50 50 50 50 50 50 50 51 52 52 52 52 52 51 51 53 52 51 52 51
16 18 22 19 23 21 23 25 24 29 35 37 38 35 29 28 43 50 52 53 53 53 54 54 55 53 53 53 52 50 51 50 50 50 50 49 49 50 50 50 51 52 51 51 52 52 52 54 54
18 21 19 19 16 16 18 17 16 27 36 38 38 38 38 39 48 50 52 53 53 54 54 54 54 54 53 53 52 50 51 51 50 49 49 49 48 49 51 51 52 53 52 52 52 52 54 53 54
13 15 21 22 22 18 16 16 35 37 39 39 37 37 38 37 47 51 52 52 53 54 54 53 53 54 53 54 53 51 50 51 51 49 49 49 49 49 52 51 52 52 52 53 52 52 53 54 54
22 15 20 20 20 21 21 20 32 33 41 38 37 39 41 41 35 49 51 53 53 53 53 53 53 53 55 55 54 52 51 51 51 50 49 50 49 50 50 51 50 51 51 52 53 53 53 53 53

GFSSGP_sfc_30mbdewp_099.txt.gz
Dewpoint
57 51 39 31 24 22 19 17 18 16 16 20 23 22 23 29 27 21 59 64 65 68 70 70 70 70 70 70 70 70 70 70 70 70 70 70 70 70 70 69 68 68 65 66 67 67 67 67 68
48 43 30 26 21 15 12 20 18 17 18 23 24 26 32 35 55 57 62 65 65 67 70 70 69 69 69 69 70 70 70 70 70 70 70 70 70 70 69 69 69 67 66 65 66 66 67 67 67
43 40 28 23 21 12 10 19 19 20 18 20 18 22 39 40 55 58 62 65 66 66 68 70 69 69 69 69 69 70 70 70 69 69 69 69 69 68 69 68 68 67 66 64 66 66 66 66 66
37 36 28 22 19 23 18 18 23 19 17 18 17 22 44 53 57 59 65 66 65 66 67 68 70 69 70 69 69 69 69 70 69 69 68 68 68 68 68 68 68 67 66 65 66 66 66 66 65
32 29 22 21 19 21 23 23 21 19 16 16 18 22 40 56 60 62 66 67 65 66 66 67 69 70 70 70 70 70 70 68 67 66 67 67 68 68 67 67 66 66 65 65 66 66 65 65 64
28 26 22 15 17 21 21 22 19 18 19 19 20 37 46 58 60 63 65 66 67 66 66 66 67 69 70 70 70 69 69 66 66 65 65 65 66 66 66 67 66 65 66 64 65 65 64 65 63
27 23 22 20 19 18 19 20 17 17 17 22 30 34 47 58 60 61 63 66 67 66 66 66 67 67 69 70 69 69 68 65 65 65 64 64 63 62 63 65 65 66 65 64 64 64 64 63 61
29 27 23 21 19 18 19 18 18 17 17 21 30 32 38 56 60 60 62 65 66 66 66 66 67 67 67 67 68 69 67 65 65 64 64 64 64 63 63 62 64 65 64 63 64 63 63 61 60
28 26 22 22 20 19 20 20 20 20 17 17 26 41 43 57 59 59 60 61 63 64 65 65 64 64 64 66 67 67 66 65 64 65 64 64 63 63 63 63 63 64 64 62 64 63 61 58 59
31 27 25 25 22 20 22 22 22 20 18 16 18 43 55 58 58 57 57 58 59 61 63 63 62 62 63 65 66 66 66 65 65 64 64 62 61 63 63 64 64 64 63 63 64 62 58 58 58
31 27 27 26 25 24 23 24 23 20 18 18 16 26 55 57 57 56 56 56 56 59 61 63 63 62 63 64 64 64 64 63 62 62 61 60 61 62 63 62 62 63 61 61 62 59 54 56 56
29 27 29 28 27 26 24 23 21 19 20 20 19 25 54 55 56 55 55 55 57 58 60 61 62 62 62 63 63 63 63 62 62 61 61 60 61 62 63 62 61 61 62 61 60 56 52 53 53
29 29 29 29 28 27 26 24 22 22 22 22 20 25 46 53 55 55 54 54 56 57 59 60 61 62 62 62 62 62 62 62 61 61 61 60 60 62 62 62 62 62 61 59 57 53 51 52 52
25 25 26 27 27 27 26 25 24 22 22 22 21 22 43 50 52 54 54 54 55 57 58 59 60 61 62 62 61 61 61 61 62 61 61 61 61 61 62 61 62 61 60 57 55 52 50 51 52
26 24 25 25 25 25 25 23 23 24 23 22 22 22 25 45 51 52 52 53 54 57 59 59 59 60 61 61 61 61 61 61 61 61 61 61 61 61 61 60 59 59 58 55 53 51 50 51 52
25 26 24 26 26 26 25 22 23 24 23 22 22 22 23 23 37 50 52 51 54 58 58 58 58 58 59 59 60 61 61 61 61 62 61 62 62 61 59 60 58 57 56 53 52 49 49 51 51
25 21 24 25 26 25 23 22 23 25 24 24 25 26 26 26 25 25 47 49 55 57 58 58 58 57 58 58 59 59 60 62 62 62 61 62 62 60 59 58 56 55 53 52 50 49 49 51 51
20 23 24 24 24 25 24 23 24 23 23 22 26 27 27 26 25 25 32 48 56 57 58 58 58 57 58 58 58 58 60 61 62 62 61 61 61 60 58 57 55 53 51 51 49 48 49 51 51
22 23 23 22 23 20 20 20 20 19 20 24 25 26 27 27 27 36 48 55 56 57 57 57 56 57 57 56 56 56 57 58 59 61 62 61 62 59 58 56 54 50 49 50 48 48 49 49 51
20 21 20 20 21 21 20 17 15 18 23 25 26 28 29 29 35 48 54 56 56 56 56 56 56 57 57 57 56 56 56 56 57 58 60 61 61 59 57 56 53 46 48 50 47 47 49 48 50
13 14 12 14 12 12 14 11 16 23 23 25 26 28 28 29 30 48 54 55 55 55 55 55 56 55 56 56 55 54 54 54 54 55 57 59 61 60 58 56 53 46 50 50 47 48 47 47 48
6 9 8 6 5 2 17 4 8 17 19 23 27 28 26 29 31 45 53 54 55 55 55 55 55 54 55 55 54 53 52 52 53 53 55 56 59 60 59 57 53 47 53 50 47 48 48 47 46
9 12 10 9 7 5 10 19 15 24 23 21 22 27 29 29 28 43 52 54 55 55 55 55 55 54 55 54 54 53 52 52 53 53 53 55 56 59 58 56 53 50 53 50 49 48 48 48 47
21 16 17 17 13 11 14 22 14 16 22 25 27 29 36 30 28 41 50 54 54 54 54 54 54 54 54 54 53 52 52 52 51 52 52 53 54 57 58 56 54 53 54 51 50 49 48 47 47
17 16 17 18 22 17 22 24 19 23 25 29 35 39 39 36 32 39 51 53 53 53 53 54 54 53 53 53 53 53 52 52 51 51 52 52 53 53 55 56 55 54 54 53 51 50 49 48 46
14 16 16 14 14 14 25 23 22 31 35 38 39 40 39 38 38 40 50 53 53 53 53 54 53 53 53 52 52 52 52 52 51 51 52 53 53 53 54 54 54 53 54 53 53 51 51 48 48
13 16 19 16 22 19 23 25 25 31 38 39 40 40 39 39 40 42 51 53 53 53 53 54 53 53 52 52 52 51 51 51 51 51 51 51 53 54 54 54 54 54 54 53 53 53 52 52 51
13 17 17 21 17 15 17 19 18 29 38 39 38 40 40 39 40 45 51 53 53 53 53 54 53 52 52 52 51 50 50 51 51 51 50 50 51 53 53 53 54 54 54 54 53 52 52 52 53
15 16 18 19 20 16 15 16 34 32 35 39 41 41 41 41 39 50 52 53 53 53 53 54 53 53 52 52 52 50 51 50 50 50 50 49 49 50 51 52 52 52 52 52 52 51 51 52 52
16 18 22 19 18 22 21 20 33 30 38 39 40 43 42 42 39 39 51 53 53 53 53 53 54 53 52 52 52 50 51 50 50 50 50 49 49 50 50 51 51 52 52 52 51 50 50 51 52

GFSSGP_sfc_30mbdewp_102.txt.gz
Dewpoint
57 51 36 30 24 22 17 15 18 16 16 19 23 24 26 27 29 17 58 65 65 67 69 70 70 70 70 70 69 69 71 71 71 71 71 70 70 70 70 69 69 69 69 68 67 68 68 67 68
51 41 29 26 19 12 9 20 18 18 18 22 25 31 31 27 53 55 60 65 66 68 68 69 70 70 70 70 70 70 70 71 71 71 70 70 70 70 70 70 68 68 68 68 67 67 68 68 67
44 37 26 23 21 10 4 18 18 22 19 21 18 23 34 37 55 56 62 65 66 68 68 69 70 70 70 70 70 70 70 70 70 70 70 70 70 70 69 69 67 66 66 67 66 67 67 68 67
38 36 27 22 17 21 15 17 20 21 19 19 17 20 41 52 55 57 64 65 66 67 69 69 69 69 70 69 70 70 70 69 69 70 70 70 70 70 69 68 66 65 65 66 66 66 67 67 66
31 30 21 20 19 21 23 23 23 21 19 17 18 17 37 55 60 63 65 65 64 66 67 69 69 69 70 69 69 70 70 69 69 69 69 69 69 68 67 66 66 66 65 66 66 67 67 66 65
29 27 20 9 11 20 21 22 22 20 19 20 19 26 39 57 60 64 66 64 65 65 65 67 69 69 70 69 69 69 69 69 68 69 69 69 69 68 67 67 66 66 65 66 66 66 66 65 64
27 24 21 20 17 19 19 20 19 18 19 19 30 26 41 55 60 64 65 66 66 65 65 66 68 69 70 69 69 69 68 67 66 67 68 68 67 67 68 67 66 65 64 66 66 65 65 64 62
27 25 23 20 16 16 19 18 18 19 19 21 36 27 27 51 60 62 64 65 66 65 65 65 66 67 69 69 69 68 67 66 66 65 65 64 64 64 65 65 64 65 65 65 64 65 64 63 61
28 22 20 18 19 16 20 20 22 22 19 19 22 34 45 58 60 61 62 64 64 65 65 65 65 66 66 67 68 68 67 66 65 65 65 64 63 63 63 63 64 64 62 63 62 63 62 61 60
29 23 19 22 21 19 21 21 22 22 21 20 20 37 56 59 59 59 60 61 62 64 64 64 65 64 64 65 65 67 67 66 65 65 64 64 63 63 63 62 62 63 61 61 62 61 61 60 59
31 25 26 25 24 23 23 23 24 23 21 21 21 22 54 58 58 58 59 60 61 62 63 63 63 62 62 64 65 65 65 66 65 64 64 62 62 62 63 62 63 63 61 61 62 60 58 58 57
28 29 28 27 27 27 26 25 22 22 22 24 23 23 47 55 57 57 57 57 58 59 61 62 62 61 62 63 63 64 63 64 63 63 62 61 61 61 62 62 62 62 61 60 61 57 56 57 56
28 30 29 29 28 27 26 26 26 24 25 25 25 23 33 49 56 57 57 57 56 57 59 61 62 61 61 62 61 62 62 62 62 62 61 60 60 60 62 62 61 62 62 61 57 55 55 54 54
20 20 21 26 27 28 27 26 27 26 25 24 23 23 24 45 51 55 55 55 55 56 57 59 61 62 62 62 61 61 62 62 61 61 61 60 60 61 61 62 61 61 61 60 55 54 53 53 53
24 19 21 25 26 26 26 24 24 26 25 24 24 23 23 33 47 52 53 54 54 56 57 58 59 61 61 62 61 61 61 62 62 61 61 60 60 61 62 61 61 60 60 58 54 53 53 53 53
26 26 24 25 25 25 25 21 25 26 25 24 23 23 24 24 33 44 50 53 54 55 57 58 59 60 61 61 60 60 60 61 61 61 61 60 61 61 61 60 60 60 59 57 53 52 52 52 52
24 21 23 24 26 25 25 22 24 25 25 24 24 25 25 27 27 30 39 46 52 54 57 58 59 59 60 59 60 60 60 60 60 61 60 60 61 60 60 61 59 60 57 56 53 52 52 51 51
20 23 24 23 24 25 24 24 25 25 21 21 21 22 26 26 26 28 27 29 50 54 57 58 58 58 58 58 58 59 60 60 60 60 60 61 61 60 59 58 57 57 56 55 54 51 52 52 51
21 21 22 23 24 22 22 22 21 22 20 17 19 22 24 26 28 31 40 34 51 56 57 57 57 57 57 57 57 58 58 58 59 60 61 61 61 59 58 56 55 55 54 53 52 52 52 52 52
21 21 21 21 21 22 21 20 19 16 14 15 17 24 26 27 28 31 46 51 53 56 56 57 57 57 57 57 58 57 57 56 58 60 61 61 61 59 58 56 55 55 54 52 51 51 51 51 51
19 19 17 18 15 9 8 5 7 12 17 23 25 26 28 28 27 28 41 52 54 55 56 56 56 57 57 57 56 55 55 55 56 57 58 60 61 59 58 56 55 53 54 52 50 50 50 50 51
13 14 15 13 7 1 14 4 6 9 11 18 21 25 25 29 36 31 35 50 54 55 56 55 56 56 56 55 54 53 53 53 54 55 56 58 60 60 58 56 54 53 51 50 49 49 49 50 49
9 9 9 8 7 6 12 8 15 16 15 16 19 22 31 39 38 34 33 47 54 55 54 55 56 56 55 55 54 53 53 52 53 54 55 56 57 59 58 57 55 51 51 50 48 49 49 50 49
16 16 15 15 12 12 12 10 13 15 17 24 28 35 40 39 39 39 38 50 54 55 55 55 55 54 54 54 53 53 52 52 52 52 53 54 55 57 59 58 55 52 52 51 47 50 50 50 49
15 17 16 19 18 14 15 15 14 21 26 35 38 39 40 41 40 40 40 50 54 54 54 54 54 53 54 54 53 52 52 52 52 52 52 53 54 55 57 57 55 52 54 52 50 50 50 49 49
15 15 15 11 13 14 25 20 21 31 38 39 40 39 40 39 40 41 41 45 53 54 54 54 54 53 54 53 53 52 52 52 52 52 53 53 53 54 56 56 54 53 54 52 52 51 51 50 49
15 14 17 16 18 17 18 23 24 35 35 38 39 39 40 39 40 41 41 46 53 53 53 53 53 53 53 52 52 52 52 52 52 52 53 53 54 54 55 55 54 54 54 53 52 50 51 50 50
11 17 15 20 15 13 16 19 18 24 30 37 37 39 42 41 41 42 42 50 53 53 53 53 53 53 53 52 51 51 52 51 51 51 52 52 54 54 54 54 54 54 54 53 53 53 52 51 51
14 13 16 17 18 13 11 14 27 30 34 36 40 42 43 42 41 42 44 51 53 53 52 53 52 52 52 52 51 51 51 51 51 51 51 51 53 53 53 54 53 53 53 53 53 52 52 52 52
20 18 16 15 17 22 18 16 35 31 36 40 42 41 42 44 44 43 47 50 53 53 52 52 52 52 53 52 51 50 51 51 50 51 51 50 51 53 53 53 53 54 53 53 52 52 52 51 51

GFSSGP_sfc_30mbdewp_105.txt.gz
Dewpoint
56 44 34 31 19 22 16 14 19 16 17 20 22 25 30 35 40 25 58 64 66 67 68 69 69 69 70 69 70 71 72 71 71 71 71 71 71 70 70 70 70 69 69 68 69 69 69 68 68
48 33 29 27 16 8 5 19 18 20 20 21 26 32 33 28 48 53 58 65 66 67 68 69 69 70 70 69 70 71 72 72 71 71 71 71 71 70 70 70 70 69 69 68 68 68 68 68 68
42 34 25 24 20 6 2 15 20 22 23 21 20 24 31 36 53 53 62 65 66 66 67 68 70 70 70 70 69 71 71 71 71 71 71 71 70 70 69 69 68 69 68 68 67 67 68 67 67
38 35 28 20 13 20 13 17 21 22 20 20 18 18 37 50 53 55 63 66 66 67 67 68 70 70 70 70 70 70 71 71 71 71 71 71 70 70 69 68 68 67 67 67 68 68 68 68 66
32 31 20 20 17 21 23 22 23 20 21 20 19 17 35 55 60 61 64 66 65 67 68 68 69 69 69 70 70 70 70 70 70 70 70 70 70 70 68 66 65 65 65 67 68 68 67 67 66
29 27 17 4 6 20 21 22 22 19 20 22 20 19 33 56 60 63 65 65 66 66 68 69 69 69 69 69 69 70 69 69 70 70 70 70 70 69 67 66 66 64 65 67 68 68 66 66 65
27 25 15 16 12 17 18 21 19 19 20 19 26 22 38 52 61 65 65 65 66 66 67 69 69 69 69 69 68 69 69 69 69 69 68 68 68 67 67 65 64 66 65 65 67 67 66 65 64
27 26 21 19 7 9 19 20 19 20 20 20 37 28 29 49 62 65 65 65 65 65 66 66 69 69 69 69 68 68 67 68 68 68 68 67 67 66 65 65 66 65 65 64 65 66 65 64 63
29 20 18 15 15 12 20 20 22 22 21 22 22 29 45 58 62 63 64 64 65 65 65 66 66 68 69 69 69 68 68 67 66 67 66 66 66 65 65 65 65 64 63 66 66 65 64 63 62
26 20 16 21 19 18 20 21 22 21 23 22 22 34 54 59 60 61 60 62 63 64 65 65 66 66 68 68 68 68 68 67 66 66 66 66 65 65 64 64 63 63 63 64 64 64 63 62 62
29 21 22 21 22 22 21 21 23 23 21 23 22 24 48 55 58 60 59 60 62 63 65 64 65 66 66 66 67 68 68 67 66 66 65 64 64 64 63 63 63 64 64 62 62 63 62 61 60
27 29 25 25 26 25 25 26 24 25 24 25 25 27 39 50 54 58 59 59 61 62 63 63 65 65 65 65 65 65 66 66 66 65 65 64 63 63 63 63 63 62 62 61 62 62 60 59 58
30 28 29 29 28 27 28 26 26 25 25 27 27 28 27 40 47 54 57 58 59 60 62 63 64 65 64 64 64 65 65 64 64 65 64 64 63 62 63 62 62 62 62 62 61 59 59 58 56
17 21 21 24 27 28 27 27 28 27 29 28 28 26 25 28 39 50 56 57 57 58 59 62 63 64 63 63 62 63 63 63 63 63 64 64 64 63 62 62 62 62 63 62 58 58 57 57 55
22 20 20 20 22 23 27 24 25 27 28 27 27 27 26 25 31 45 49 55 56 57 57 59 61 63 62 62 61 62 63 63 62 61 62 62 62 61 61 61 62 62 60 60 58 57 57 56 55
26 27 20 24 25 25 23 19 25 26 26 26 26 25 26 27 27 35 46 51 52 55 56 57 59 62 62 62 61 61 62 62 62 62 62 61 61 61 61 61 61 61 58 57 57 56 55 55 54
24 19 24 23 26 25 23 19 23 26 26 25 25 25 25 26 28 29 32 40 46 51 54 56 58 60 61 62 61 61 62 61 62 62 61 61 61 60 60 61 61 60 58 56 56 56 55 54 53
14 21 22 21 25 26 24 24 25 26 24 23 23 23 22 22 24 28 31 31 33 37 52 56 59 59 61 61 60 61 60 61 61 61 61 61 61 60 60 61 60 60 58 55 55 55 55 54 53
18 18 18 24 25 24 24 24 24 24 24 23 23 21 20 23 27 31 33 38 43 44 53 57 58 59 60 59 58 59 59 60 60 61 61 60 61 61 61 60 59 59 57 55 54 54 53 54 53
18 17 19 23 23 22 21 20 18 16 15 14 14 14 17 26 29 34 36 42 49 49 54 57 57 58 59 59 60 59 59 59 59 60 60 60 61 60 59 58 57 57 57 55 54 54 53 53 53
19 18 19 19 18 14 12 6 2 9 12 14 17 21 27 29 33 39 39 38 46 52 55 56 57 57 59 59 59 58 57 57 57 58 59 60 61 60 59 57 56 55 54 54 54 54 53 52 52
11 18 19 19 16 10 11 -2 7 11 12 17 19 24 28 39 40 40 40 41 42 50 55 56 56 57 58 58 57 56 55 54 55 56 57 60 61 59 59 57 56 55 55 54 54 55 54 53 51
12 15 16 16 12 7 8 10 12 15 14 18 22 33 41 41 41 41 41 42 44 50 54 55 56 56 57 57 56 55 54 54 54 55 55 58 60 60 58 57 55 55 55 54 54 54 54 54 53
13 13 15 16 12 13 13 12 11 13 16 25 36 39 40 41 40 41 42 43 44 53 55 55 55 55 56 56 55 54 54 54 53 53 53 56 56 58 59 56 55 55 54 54 54 54 54 54 53
18 19 16 18 15 14 15 12 13 20 29 37 37 37 39 40 41 41 42 43 43 47 54 54 54 54 55 55 55 54 54 53 52 53 54 55 55 56 58 56 55 54 53 52 51 52 53 53 52
16 18 13 9 15 13 20 14 17 27 38 38 38 38 39 40 41 41 41 42 43 47 53 53 53 53 54 54 53 53 54 53 53 53 53 54 54 55 57 57 55 54 53 53 51 51 52 52 52
16 14 19 16 19 16 16 22 24 38 37 38 37 39 39 41 41 41 42 43 43 47 52 53 53 53 53 54 54 53 53 53 53 53 52 53 54 55 57 57 56 54 54 54 51 51 51 52 53
15 20 16 18 12 10 14 17 16 29 29 36 35 38 39 41 40 41 43 43 46 48 53 54 53 53 54 54 54 53 53 53 53 53 52 53 54 54 55 56 55 54 55 53 52 52 52 52 52
12 11 16 18 18 9 9 11 22 29 31 33 37 41 40 42 42 43 44 45 48 49 53 53 53 53 53 53 53 53 53 53 53 53 53 53 54 54 55 55 54 54 54 53 52 51 51 51 51
20 16 14 12 15 19 14 12 33 33 34 38 40 42 42 43 43 45 45 46 49 50 53 53 53 53 53 53 52 52 52 53 53 52 53 54 54 54 54 54 54 54 53 53 51 50 49 51 51

GFSSGP_sfc_30mbdewp_108.txt.gz
Dewpoint
51 46 32 25 14 9 2 2 7 15 17 19 21 28 27 27 27 22 53 58 59 60 65 67 67 69 70 71 71 72 71 71 71 71 71 71 71 71 71 70 69 69 69 69 69 69 69 69 69
44 36 26 19 5 0 -1 5 11 12 17 21 23 24 26 23 35 46 54 60 59 62 66 67 68 69 70 70 71 72 71 71 72 71 71 71 71 71 71 70 69 69 69 69 68 69 69 68 68
39 30 17 11 5 -1 -2 4 10 20 22 21 21 26 25 26 42 45 50 60 60 61 65 67 68 69 69 69 71 72 72 72 71 71 71 71 71 71 70 70 69 70 69 68 68 68 69 68 68
31 24 19 10 2 6 7 7 19 18 19 21 19 19 30 44 44 46 56 59 59 61 63 68 68 69 70 69 70 71 72 71 71 71 71 71 71 71 70 69 69 68 67 68 68 68 68 67 66
30 22 9 8 3 3 14 13 20 19 16 19 19 17 24 46 52 50 56 59 58 61 63 68 69 69 70 70 70 71 71 71 71 71 71 71 71 69 69 68 68 67 68 68 68 68 67 67 67
20 20 9 4 4 7 14 12 17 17 14 18 20 18 20 49 53 53 58 61 61 64 66 68 69 69 69 70 70 70 70 70 71 71 71 71 69 68 68 67 67 67 67 67 69 68 67 67 66
22 15 9 6 3 4 9 13 15 12 13 17 22 18 26 44 55 59 60 62 65 65 66 67 68 68 69 68 69 69 69 70 70 69 70 70 69 67 66 67 66 64 64 65 67 68 66 66 66
22 19 15 10 10 6 10 16 13 10 12 23 26 23 27 43 59 60 60 62 65 64 65 66 67 68 68 68 68 69 69 69 69 69 69 68 68 67 66 66 65 63 65 65 67 66 66 66 65
24 18 15 14 12 10 15 14 19 21 21 21 22 24 35 50 58 59 59 59 62 62 62 64 66 67 67 67 67 68 68 67 68 68 68 67 66 64 65 64 63 63 64 65 64 66 65 64 63
22 18 18 18 17 15 14 15 16 17 16 18 20 27 41 49 52 54 56 56 59 60 61 62 64 65 66 65 66 67 68 67 67 66 65 65 63 63 62 63 64 64 63 63 64 65 64 63 63
24 19 21 20 18 17 16 15 17 16 12 15 19 22 26 38 43 48 50 52 54 57 59 61 64 65 65 64 63 67 68 67 67 66 66 65 65 64 64 63 61 61 62 60 64 64 63 63 62
24 22 23 22 21 19 18 17 17 18 17 17 21 24 27 28 37 40 44 48 50 54 57 62 64 65 65 63 63 63 67 68 67 67 67 66 65 65 64 63 60 59 59 60 62 63 63 63 62
23 24 23 24 23 22 21 21 21 21 22 24 23 26 27 28 30 36 40 42 48 54 58 60 65 65 65 65 62 61 64 66 67 67 67 66 64 64 63 64 64 61 62 62 62 63 62 61 61
20 22 23 24 24 24 24 22 23 24 26 26 27 26 25 26 28 31 38 42 46 51 56 60 63 66 64 65 65 63 63 62 66 66 66 66 65 64 63 62 62 61 62 62 62 62 61 60 59
18 17 17 18 19 19 20 19 19 19 21 23 22 22 23 26 27 28 33 41 46 48 51 57 62 64 64 63 64 63 62 63 64 64 65 65 65 64 63 63 63 62 63 63 62 61 61 60 58
18 17 14 17 19 19 20 19 22 25 25 25 26 26 27 27 27 27 32 36 39 43 46 53 57 62 64 62 62 62 62 64 63 63 63 64 63 64 63 62 62 63 62 62 60 59 58 58 58
18 15 16 19 23 21 20 19 20 22 23 24 26 26 26 26 26 26 28 29 33 37 42 47 55 58 62 62 62 62 63 63 64 63 63 62 62 63 62 62 62 62 60 60 59 58 57 57 57
14 17 19 20 22 23 22 21 22 25 25 26 26 26 26 26 26 26 27 30 29 31 35 42 50 57 59 62 63 62 62 62 62 62 61 62 62 61 61 61 62 60 57 57 57 57 57 56 56
14 12 11 12 19 21 21 20 21 23 25 25 25 25 25 25 24 21 31 36 39 40 41 40 47 55 58 62 61 60 60 61 61 62 61 61 61 61 61 61 61 59 57 56 56 56 55 55 56
17 18 12 10 21 22 18 17 18 19 20 20 18 15 15 16 13 27 36 41 42 45 45 47 50 55 58 60 60 60 61 61 61 62 62 61 61 61 61 61 60 59 57 57 57 56 55 54 55
18 17 16 10 12 17 15 11 10 10 8 7 8 11 12 17 25 33 39 41 43 44 47 49 51 54 57 58 60 60 61 60 60 60 60 61 60 61 61 60 60 59 58 55 55 55 54 52 54
12 14 12 15 21 9 8 1 4 7 9 11 13 18 22 32 37 38 40 41 43 45 47 50 51 53 56 58 59 59 58 57 58 58 59 60 60 60 60 60 59 58 58 55 55 55 54 54 53
11 10 12 14 13 10 4 2 -0 12 9 12 17 24 34 38 39 40 41 42 42 44 51 52 53 54 56 57 59 58 57 56 57 57 57 59 60 60 61 59 57 56 56 56 56 56 55 54 53
16 15 13 12 9 5 5 0 0 7 11 16 27 34 38 39 39 39 40 41 41 44 48 53 54 54 56 58 58 58 57 56 55 55 56 57 58 60 60 58 57 56 56 55 55 56 55 55 54
13 14 15 15 13 7 12 9 6 14 20 23 30 33 35 36 37 38 38 39 42 44 46 51 54 53 55 57 58 58 57 56 55 55 55 54 56 58 59 57 57 56 55 55 55 55 55 55 54
14 15 8 9 10 9 16 11 11 16 26 33 32 32 34 35 37 36 37 39 42 43 46 49 53 53 54 56 57 57 57 56 55 54 53 54 55 56 59 58 57 56 55 55 55 55 55 55 54
16 16 15 15 16 14 13 17 25 30 32 33 31 32 32 34 36 38 40 42 44 45 48 49 53 53 54 55 56 56 56 55 54 54 53 54 54 56 57 57 56 56 55 54 54 54 55 55 54
13 15 15 14 6 3 2 8 9 27 28 31 30 30 34 37 40 41 41 43 44 44 49 51 53 53 54 55 55 55 57 55 54 54 54 54 55 55 55 57 56 55 54 54 53 53 53 54 54
9 15 15 13 11 4 1 8 19 20 26 28 28 34 37 41 41 41 42 43 42 45 47 51 53 53 54 54 54 56 55 55 54 54 54 54 54 54 54 56 57 55 54 54 52 52 53 53 53
7 7 12 10 10 13 9 8 27 30 30 32 34 38 41 42 41 40 41 42 41 42 43 50 52 53 53 54 55 55 54 54 53 53 53 54 54 54 54 55 55 54 54 54 52 51 52 51 52

GFSSGP_sfc_30mbdewp_111.txt.gz
Dewpoint
49 44 39 25 14 7 0 2 2 6 12 15 18 22 22 22 24 29 48 53 50 57 64 67 69 70 70 70 71 72 72 72 71 72 72 72 72 71 71 70 70 70 70 69 69 69 69 69 69
38 35 31 18 10 2 2 2 3 3 14 20 21 21 22 24 28 43 48 52 51 58 64 65 68 69 70 71 71 71 72 72 72 72 72 72 71 71 71 70 68 69 70 69 69 69 69 69 68
52 33 19 10 8 0 -1 2 3 9 18 19 18 20 20 23 31 37 48 49 53 56 62 66 68 69 70 71 71 72 72 72 72 72 71 71 71 71 71 69 68 69 70 70 69 69 69 69 68
35 25 19 13 6 5 4 4 5 15 16 18 18 19 23 37 36 39 50 50 51 55 58 67 68 69 69 70 71 72 72 72 71 71 71 71 71 71 70 69 69 70 70 70 69 69 68 68 67
29 18 11 5 4 3 4 6 10 13 13 17 18 16 22 35 40 44 50 52 52 55 60 68 68 69 69 69 71 72 72 71 71 71 71 71 71 71 69 69 69 69 69 68 68 66 66 67 67
23 19 14 8 6 6 5 10 9 14 15 16 19 17 19 37 41 47 52 53 54 58 62 68 68 69 69 69 70 71 71 71 71 71 71 71 71 70 69 69 69 68 68 68 68 67 67 67 67
23 17 12 10 8 6 6 12 9 13 14 13 17 17 20 35 42 49 53 55 58 61 64 68 68 68 69 69 69 69 70 70 71 70 70 70 70 69 68 68 66 67 67 67 68 68 66 66 66
23 21 18 16 13 9 8 10 11 8 10 14 19 16 18 38 52 54 53 56 59 62 63 66 67 67 67 67 68 69 69 69 70 70 70 69 68 68 66 66 66 66 66 66 68 67 65 65 65
25 21 19 18 17 14 13 11 12 12 6 14 17 20 33 42 50 53 52 54 59 59 61 63 65 66 66 66 67 68 68 68 69 69 68 68 66 65 65 65 65 64 62 65 65 65 66 65 65
23 22 21 20 19 17 15 14 12 14 11 14 20 25 33 39 45 50 50 52 55 57 57 59 62 63 64 64 67 66 66 67 66 66 66 68 64 63 63 63 65 64 63 63 65 65 65 64 64
24 23 24 22 21 19 17 16 16 14 14 11 17 21 26 32 37 43 45 45 51 54 54 55 61 63 63 61 62 63 66 66 66 65 65 65 64 64 63 63 64 64 63 61 62 64 63 63 64
23 24 24 24 23 21 19 19 18 16 16 15 14 18 23 24 29 34 40 42 43 50 53 55 58 62 64 60 60 59 66 65 66 65 67 66 65 65 64 63 63 63 61 58 60 64 63 63 63
22 23 24 24 23 23 22 21 20 19 18 19 19 18 21 25 24 28 33 35 37 42 49 54 58 61 63 64 60 60 65 66 64 65 65 65 64 64 64 63 62 61 60 60 62 63 63 63 62
21 23 23 24 24 24 23 22 22 22 23 22 22 23 22 23 22 24 29 32 35 37 43 54 58 63 63 63 62 61 61 64 66 67 64 66 65 64 64 64 63 63 61 62 63 63 62 62 62
18 17 19 20 22 23 24 23 22 23 23 24 25 25 24 23 22 22 25 29 34 36 40 52 58 64 64 63 62 62 60 61 63 65 66 66 66 65 64 64 63 63 62 62 63 63 63 62 61
18 17 15 17 18 20 20 18 21 23 23 22 22 23 24 23 22 23 24 26 29 37 40 45 54 60 64 63 62 63 61 61 60 63 64 65 66 65 63 62 63 63 63 63 62 62 62 61 60
19 16 16 17 18 17 18 17 19 20 23 24 25 25 25 25 26 27 27 27 28 32 36 41 50 56 61 64 62 63 61 61 61 61 63 64 65 65 64 61 63 63 62 62 62 61 61 59 59
17 18 17 16 17 17 18 19 21 21 22 22 24 25 26 26 26 28 28 28 28 30 33 38 44 53 59 61 63 61 61 61 61 61 62 63 64 63 64 62 62 63 62 61 61 59 59 58 58
18 18 17 19 18 21 22 21 21 21 23 24 25 26 26 27 27 27 28 30 32 35 35 36 38 45 55 57 59 61 62 61 61 60 60 60 61 62 62 61 61 62 60 59 59 58 57 57 58
17 17 20 19 19 18 18 19 20 20 20 22 24 25 25 25 25 26 25 29 37 39 40 41 42 44 48 54 57 62 61 61 62 61 61 61 62 61 61 61 62 60 59 58 57 57 55 56 57
14 16 18 16 16 19 16 16 15 14 15 17 20 21 19 17 16 19 24 36 39 41 42 43 44 45 48 53 59 61 61 60 61 61 61 61 61 60 61 61 61 59 58 57 57 56 55 54 56
9 16 17 18 18 18 21 16 14 14 8 11 12 11 11 12 16 22 32 36 39 41 44 48 47 47 49 54 58 59 59 58 59 60 60 60 61 60 60 61 61 60 58 57 57 57 55 54 53
11 17 20 19 17 15 13 15 13 9 5 8 10 13 18 25 31 32 35 36 37 38 42 48 51 50 50 52 57 59 59 58 58 59 59 59 60 60 60 61 60 60 58 57 56 56 55 54 53
15 14 14 14 14 11 12 9 7 6 10 6 9 19 29 32 33 33 34 36 35 39 43 46 50 51 51 53 56 59 58 58 56 57 57 58 60 60 60 60 60 60 59 57 56 56 56 55 54
17 18 17 15 13 11 11 8 6 7 12 14 21 28 31 33 33 34 33 33 35 38 41 44 45 50 52 54 55 60 59 59 56 57 57 57 58 59 60 60 59 59 58 57 56 56 55 55 55
16 15 20 15 14 11 10 10 8 8 15 21 26 29 30 31 33 33 34 38 39 40 42 45 47 47 51 53 55 58 59 59 58 57 56 56 56 57 59 59 58 58 57 57 56 56 55 55 55
15 11 14 16 19 19 16 13 21 16 19 28 26 25 27 29 31 35 38 40 42 42 43 43 47 48 49 53 56 57 59 59 57 57 56 55 54 55 57 59 58 58 57 56 56 56 55 55 54
14 13 12 14 9 7 6 11 13 18 22 26 24 26 28 31 35 37 39 40 42 42 43 44 48 49 49 53 56 57 57 58 58 56 55 54 54 55 58 58 57 57 56 56 56 55 55 55 55
8 12 11 9 7 5 5 9 21 21 23 25 25 27 30 33 37 37 38 40 41 42 42 44 48 51 50 54 55 56 56 57 57 56 55 54 55 55 55 57 57 56 55 55 54 54 55 55 55
2 8 11 7 6 7 11 22 21 24 24 26 27 30 34 38 43 41 41 41 41 41 41 42 44 52 53 55 55 55 56 57 56 55 54 54 55 54 54 56 57 56 55 54 53 53 53 53 54

GFSSGP_sfc_30mbdewp_114.txt.gz
Dewpoint
52 44 40 36 20 14 6 6 6 1 6 14 17 16 20 24 32 36 49 54 61 63 67 68 70 70 70 70 71 71 72 72 72 72 72 71 71 71 71 70 70 70 70 70 70 69 69 70 69
38 33 32 29 16 8 6 6 2 2 12 17 18 19 23 24 38 44 50 52 60 64 65 68 69 69 70 70 71 72 72 72 72 72 72 71 71 71 70 70 69 70 70 70 69 69 69 70 69
43 39 30 20 13 10 6 2 4 10 17 18 16 17 20 20 34 43 50 52 59 62 64 68 69 69 70 71 71 72 72 71 72 72 72 72 71 71 70 69 69 70 70 70 69 69 69 69 68
44 41 27 16 10 7 8 7 5 9 14 16 15 18 18 37 34 47 48 51 56 59 64 67 68 69 70 71 72 72 72 71 71 72 72 72 72 71 70 69 69 70 71 70 70 67 66 68 68
41 26 18 11 8 10 10 8 6 6 13 14 14 14 20 34 36 47 48 51 55 62 68 67 68 69 69 70 72 72 72 71 71 71 71 71 71 71 70 69 69 69 69 68 67 67 67 67 67
32 26 18 13 11 10 8 7 7 10 13 13 16 15 22 34 38 48 51 54 58 69 69 68 69 69 69 70 71 71 71 71 71 71 71 71 71 69 70 69 69 68 68 68 67 67 67 67 67
30 23 19 15 12 11 9 9 9 9 13 13 16 16 24 37 41 50 52 57 61 67 70 69 68 69 69 69 69 70 71 71 69 71 70 71 70 68 68 68 68 67 67 66 66 66 66 67 66
29 25 20 16 14 12 12 11 11 10 9 14 14 13 19 34 46 49 53 56 61 64 69 69 69 69 68 69 68 69 70 70 70 70 69 70 69 68 67 67 66 66 66 66 66 65 65 65 65
29 25 22 20 18 18 17 15 13 13 9 8 13 17 38 44 51 50 53 55 60 63 65 68 68 68 68 68 68 68 69 69 70 70 69 69 69 68 67 67 65 65 65 65 66 65 65 65 64
27 25 23 22 21 20 18 18 15 13 12 11 11 20 34 40 46 49 49 53 59 60 62 65 66 67 67 66 68 68 68 68 69 69 69 68 69 66 65 65 65 65 63 63 65 65 65 64 64
24 23 25 24 22 22 20 19 17 14 12 14 14 18 25 32 38 47 47 49 56 59 59 60 65 66 66 64 67 67 67 67 67 67 67 68 67 66 65 65 65 65 63 63 65 65 64 64 64
21 25 24 24 24 23 21 21 19 18 16 17 16 20 22 27 33 38 43 46 49 55 56 57 63 65 66 64 65 65 65 66 66 67 66 67 67 66 65 65 65 65 64 62 63 64 62 63 63
19 21 23 25 24 24 24 23 21 20 20 21 19 18 22 26 26 30 35 40 43 49 54 55 60 64 66 66 62 63 66 66 66 66 67 67 67 66 66 65 65 64 63 62 62 63 63 62 63
18 20 22 23 24 24 24 23 22 23 23 22 23 20 20 22 24 26 28 32 37 40 51 56 58 64 65 66 65 62 67 66 66 66 66 68 67 66 66 65 64 64 63 63 63 63 63 62 63
22 21 22 22 22 24 24 23 22 24 24 23 23 23 23 24 24 24 26 31 35 36 39 57 59 64 65 66 65 65 64 67 66 67 67 67 67 66 65 65 65 64 63 62 63 63 63 62 62
18 19 18 21 20 21 22 21 24 24 25 24 25 25 25 26 26 25 26 26 32 35 37 55 58 64 64 65 65 64 63 64 66 66 66 66 67 66 65 65 65 65 63 63 63 63 62 62 61
18 16 17 18 19 18 19 19 22 24 23 23 23 24 25 26 26 27 27 27 26 29 38 41 59 66 66 66 66 65 64 64 63 65 65 66 66 66 64 64 64 65 63 63 63 63 62 61 61
16 17 17 17 19 19 18 18 19 20 20 21 23 24 25 25 25 26 27 27 28 28 35 43 56 61 66 66 65 65 65 63 63 62 63 64 64 66 65 63 63 64 63 63 62 62 62 61 60
17 16 17 19 20 20 19 19 18 19 20 21 24 25 26 28 28 29 30 31 34 36 37 39 44 57 62 63 64 64 63 62 62 62 63 63 63 65 64 63 63 62 62 61 61 60 59 59 60
13 13 16 19 20 24 26 26 22 21 22 22 24 24 26 27 27 28 30 34 35 36 41 42 42 43 54 60 61 62 63 63 62 62 62 63 64 64 62 63 62 62 61 60 60 58 57 57 59
9 11 16 17 24 30 26 26 18 21 22 22 24 26 27 27 28 28 29 35 39 41 43 43 44 45 47 46 58 61 63 62 61 61 60 63 63 62 62 62 63 62 60 59 59 58 57 55 57
6 10 14 17 22 27 25 16 16 18 19 18 17 18 23 25 23 22 27 36 39 41 44 45 48 48 48 51 52 62 61 60 60 61 61 62 62 62 62 62 62 61 60 59 58 58 57 56 55
5 9 13 17 20 24 22 18 18 19 20 22 18 16 18 20 20 21 33 36 38 41 44 46 49 51 51 51 54 61 60 60 60 60 60 61 61 61 60 62 62 60 59 58 58 57 56 56 55
6 14 18 19 20 19 19 18 16 18 21 22 16 11 18 28 32 33 35 36 35 39 43 45 46 47 51 52 54 60 60 59 58 59 59 60 61 61 61 61 61 60 59 58 58 57 56 55 55
14 15 17 19 17 17 18 17 17 15 15 18 14 15 32 34 33 32 33 34 38 41 44 45 45 46 48 53 53 58 60 60 59 59 59 59 60 60 61 61 60 60 59 58 58 57 56 55 54
16 15 18 12 13 13 14 14 14 15 13 14 24 31 33 33 35 34 37 41 42 43 44 45 45 45 47 49 54 56 60 60 59 59 59 59 59 59 61 61 60 60 59 58 57 57 56 56 55
16 16 20 19 24 21 15 15 17 13 19 24 28 31 30 31 34 36 39 42 42 42 43 45 45 46 48 49 51 56 58 60 58 59 60 58 58 58 60 60 58 59 58 58 57 56 56 56 55
17 20 18 19 15 17 27 13 20 14 23 28 31 27 28 30 36 37 39 40 41 42 43 44 43 44 47 49 52 56 57 58 59 60 58 58 57 57 60 59 58 58 58 57 57 56 56 55 55
20 15 15 16 15 11 15 23 27 20 27 35 24 29 39 41 41 41 41 41 42 43 42 42 42 43 44 47 52 56 56 57 59 59 59 57 56 56 59 58 58 58 57 57 56 56 55 55 55
13 13 15 15 13 10 11 19 32 31 26 27 41 41 43 42 41 40 41 41 41 41 41 41 41 41 43 45 53 56 57 57 58 59 58 57 56 57 58 58 57 56 56 56 55 55 55 54 54

GFSSGP_sfc_30mbdewp_117.txt.gz
Dewpoint
47 45 44 40 31 22 14 13 14 11 7 17 20 19 24 33 40 42 62 64 66 68 70 70 70 70 70 70 71 72 72 72 72 72 71 71 71 71 70 70 71 72 72 71 70 70 70 69 69
44 41 37 32 24 16 13 14 12 9 17 19 18 18 25 36 48 55 58 63 66 67 69 69 69 70 70 70 71 72 72 72 72 72 71 71 71 71 70 70 69 70 69 69 70 69 70 69 68
39 38 32 29 23 16 14 12 11 18 19 18 17 17 20 39 49 50 60 64 64 66 68 69 69 70 70 71 71 72 72 72 72 72 71 71 71 71 70 69 69 70 70 70 69 70 70 68 68
36 43 41 23 18 17 15 14 12 14 18 17 16 17 28 41 48 53 62 62 63 66 68 68 69 69 70 71 72 72 71 70 72 71 72 71 71 71 70 69 69 71 70 70 70 70 69 68 67
36 39 27 19 16 15 14 13 12 10 14 16 16 15 30 46 50 55 59 61 62 66 67 68 68 69 70 71 72 71 70 69 71 71 72 71 71 70 70 69 69 69 68 70 68 69 68 67 67
37 33 22 19 17 16 15 14 11 10 13 16 15 17 31 48 48 52 57 62 67 66 67 68 69 69 70 71 71 71 71 71 71 71 71 71 70 70 69 69 69 69 68 67 67 67 67 67 67
38 32 25 23 20 18 16 16 13 13 14 16 18 17 33 45 49 53 60 67 68 68 67 68 69 69 69 70 71 71 71 71 71 71 71 71 70 69 69 69 68 67 66 66 66 66 67 67 66
35 33 30 27 21 18 17 15 14 11 11 15 17 15 20 43 51 56 61 67 68 68 67 67 68 68 68 69 70 70 70 70 69 70 69 70 69 68 68 68 68 67 65 65 66 66 66 66 66
30 30 27 27 24 23 22 20 19 12 11 10 12 20 46 50 52 55 59 63 67 68 68 68 68 68 67 67 68 69 70 70 69 70 67 69 69 68 68 67 66 66 65 65 65 65 66 66 65
28 28 28 27 25 24 24 22 21 14 12 10 13 41 44 50 51 53 57 59 62 66 67 68 68 67 67 67 68 68 69 69 69 70 68 69 69 68 68 67 66 66 65 65 64 65 65 65 64
24 27 28 28 27 26 24 23 23 19 12 12 13 36 39 40 50 50 54 59 60 63 66 67 67 67 67 67 67 67 68 68 68 69 69 68 68 68 67 66 65 65 64 65 65 65 64 64 62
19 22 25 26 26 25 25 25 24 23 18 17 15 30 36 36 40 49 49 56 60 61 62 66 67 67 67 66 66 67 67 67 67 67 68 67 67 66 65 65 65 64 63 63 64 63 63 64 63
14 17 20 22 25 25 25 24 24 24 24 23 23 23 25 32 35 38 47 49 59 59 60 63 65 66 66 65 67 66 66 67 67 66 67 67 67 66 65 64 65 64 63 63 63 63 62 63 63
20 19 19 20 21 23 24 24 24 25 25 24 23 23 23 28 29 30 29 31 44 58 58 59 63 65 65 64 65 65 66 66 66 66 66 66 67 66 65 64 64 64 64 63 63 62 62 63 62
21 20 21 22 19 20 23 23 23 25 25 25 24 24 24 24 26 26 26 27 29 45 57 57 62 64 65 63 65 64 66 66 66 66 67 67 66 66 65 64 64 64 64 63 63 63 63 62 62
3 12 16 19 22 21 22 20 23 25 24 24 24 24 24 24 25 25 27 26 26 31 50 57 61 64 65 64 64 65 67 66 66 67 66 67 67 66 65 65 64 64 63 62 63 62 62 62 62
4 7 12 17 20 21 22 20 23 25 25 24 25 25 25 25 26 27 27 27 26 31 35 57 62 64 64 65 65 64 64 67 66 66 66 65 66 66 65 65 64 64 63 62 62 62 61 61 61
7 8 11 16 18 20 20 20 20 22 22 24 25 25 25 25 25 26 27 28 27 27 35 55 61 64 64 65 65 65 63 64 65 66 66 65 65 66 65 64 64 64 62 61 62 61 61 61 60
12 14 11 16 19 19 19 19 19 20 20 20 22 22 24 25 26 27 27 28 28 33 38 52 63 64 65 64 64 64 63 63 63 64 65 65 65 65 65 64 63 64 62 62 62 61 61 60 60
12 10 14 17 19 21 20 24 20 23 21 19 20 22 23 27 28 26 26 32 35 39 42 45 60 65 65 65 64 64 64 64 63 63 63 64 64 64 65 64 62 63 62 62 61 60 59 59 60
12 9 10 15 25 29 27 26 26 27 23 21 20 22 25 27 28 30 34 35 39 41 42 42 46 55 62 63 64 63 63 62 62 61 62 63 63 64 64 63 62 62 61 60 60 59 58 57 58
9 9 8 11 13 23 28 20 22 27 24 20 21 21 24 27 28 28 37 39 40 42 46 46 49 50 50 52 60 61 61 61 61 61 61 61 63 63 63 63 62 61 60 59 59 59 58 56 55
10 10 7 9 18 29 28 26 21 21 19 19 21 23 22 22 26 28 37 39 40 44 46 48 49 49 50 50 53 60 60 61 61 61 61 60 62 63 63 62 62 61 60 59 59 59 58 57 56
12 10 10 22 28 25 23 23 19 18 18 19 21 22 23 23 31 36 38 41 45 45 46 46 46 46 47 50 52 60 60 60 60 60 60 60 60 62 62 62 62 61 60 59 58 58 58 57 56
10 6 18 21 23 18 20 19 19 20 19 19 20 22 29 31 33 37 42 43 43 44 44 44 45 44 45 48 49 51 59 60 59 59 59 60 59 60 61 62 61 60 59 59 58 58 57 57 56
11 19 20 18 17 15 17 18 18 20 21 21 21 32 34 33 39 42 42 41 42 43 44 43 43 43 44 47 49 50 52 60 59 59 60 59 59 60 61 62 61 60 59 58 58 58 57 56 56
18 17 22 22 23 20 15 15 17 19 23 27 30 32 34 38 40 41 41 41 42 43 43 43 42 42 43 44 46 47 50 56 60 59 59 60 60 60 61 61 60 60 59 58 58 57 57 56 55
16 19 19 27 21 20 26 17 17 25 31 36 42 39 41 41 41 41 42 42 42 43 43 42 42 41 42 42 43 45 48 51 60 59 58 59 60 60 61 61 60 59 59 58 58 57 57 56 55
20 17 24 29 21 18 23 25 30 29 31 40 43 44 42 40 40 40 40 40 40 41 41 41 40 40 40 41 41 43 46 50 58 58 58 59 59 59 60 60 59 58 58 58 57 56 56 55 55
26 22 20 19 20 17 20 27 38 40 41 42 42 41 40 38 38 38 38 38 38 38 39 38 38 38 39 39 40 41 45 56 57 58 58 59 58 59 59 58 58 57 57 57 56 55 55 55 54

GFSSGP_sfc_30mbdewp_120.txt.gz
Dewpoint
51 47 43 38 25 23 16 15 15 11 12 14 21 26 33 37 37 35 63 64 66 68 69 70 70 70 71 71 71 71 71 71 71 71 71 71 71 71 72 72 72 72 71 70 70 70 69 69 69
44 41 36 32 24 15 10 17 13 10 13 15 20 24 34 45 52 60 60 65 67 68 69 69 69 70 70 71 71 71 72 71 71 71 71 71 71 70 71 71 71 71 71 70 70 69 69 69 68
38 38 31 29 25 11 4 14 12 13 13 18 16 18 32 45 57 58 60 66 67 68 69 69 69 70 70 70 71 72 72 71 71 71 71 71 71 70 70 69 70 69 69 70 69 70 69 68 68
26 40 40 32 23 20 13 14 15 14 14 16 18 17 38 49 55 59 64 65 66 67 68 69 69 69 70 70 71 72 72 71 71 71 71 71 71 70 69 69 70 70 69 70 70 70 68 67 67
36 40 34 27 25 22 19 18 17 15 13 11 17 17 37 48 58 61 61 64 64 66 68 68 69 70 70 71 71 71 71 71 71 71 71 71 71 70 69 69 70 70 70 69 69 68 67 67 67
37 36 28 25 24 20 19 18 16 15 15 13 16 26 37 53 59 59 61 63 65 65 67 68 69 70 71 71 71 70 69 70 71 71 71 71 70 70 69 69 69 69 69 69 69 67 67 67 66
38 33 29 26 21 22 21 21 18 16 16 16 17 24 45 54 58 60 62 66 65 66 67 68 69 70 70 70 70 70 69 70 70 71 71 70 69 69 69 68 69 68 68 68 68 67 67 67 66
38 36 32 29 26 24 24 23 19 18 12 18 19 31 45 49 55 63 66 66 65 66 66 67 68 69 70 70 70 70 70 70 70 70 70 70 69 69 69 68 68 67 66 67 66 66 66 66 66
28 30 31 31 30 28 27 25 25 24 18 12 16 18 43 50 60 65 66 66 65 65 65 67 67 67 68 69 70 70 70 70 70 70 70 70 69 68 69 68 68 67 66 66 65 65 65 66 65
24 28 30 31 31 29 28 27 25 22 21 18 37 45 45 55 60 61 63 64 65 64 65 66 66 66 67 68 69 69 69 69 68 69 67 68 69 68 68 68 67 66 66 65 65 64 65 65 65
18 23 29 29 30 29 28 27 27 25 23 21 29 45 50 54 56 59 61 63 63 65 65 66 66 66 66 66 67 67 68 67 67 69 67 68 69 68 67 67 66 66 66 65 65 64 64 64 63
9 11 17 23 26 28 28 27 26 25 24 24 21 44 49 52 54 56 58 60 64 66 66 66 66 66 66 66 66 66 67 67 67 68 68 67 68 67 67 66 65 65 64 64 64 63 63 63 62
22 18 14 14 19 22 25 25 26 25 26 25 26 35 39 49 51 54 56 59 61 63 66 66 66 66 66 66 65 66 66 66 66 67 68 67 67 67 66 65 65 64 63 63 63 62 62 62 62
14 13 18 20 16 16 20 21 24 25 27 26 25 24 30 32 40 49 53 57 60 61 63 66 66 66 66 66 66 65 65 66 66 66 67 67 67 66 65 64 64 64 63 63 62 62 61 62 62
15 11 8 13 20 21 19 19 20 22 26 25 25 25 24 24 31 37 45 53 58 60 61 64 65 66 66 65 66 66 66 66 66 66 66 66 67 66 65 64 64 64 64 62 63 62 61 62 62
15 14 9 7 13 19 21 18 20 21 24 25 25 25 25 24 25 27 29 31 52 58 59 60 64 65 65 65 65 65 66 66 66 66 66 66 66 66 65 64 64 64 63 63 62 62 61 61 61
14 10 9 9 9 16 20 20 21 21 24 24 25 25 25 25 25 25 25 27 28 45 58 59 62 64 65 64 64 64 66 65 66 66 66 66 66 66 65 65 64 64 63 62 62 62 61 61 61
9 9 10 9 6 13 15 20 21 23 23 24 25 25 25 25 26 26 26 26 27 27 45 57 60 63 64 64 63 64 66 66 65 66 66 66 66 66 65 65 64 63 62 61 61 61 60 61 61
19 17 13 12 13 13 9 17 19 21 22 24 24 25 25 26 26 27 27 28 28 28 33 56 58 61 64 64 63 63 63 65 65 65 66 65 66 66 65 64 64 64 62 61 61 61 60 60 61
15 19 22 18 13 12 14 13 17 19 21 22 23 23 24 25 26 26 27 28 30 33 36 56 59 62 63 64 64 64 63 63 64 65 65 65 65 65 65 64 64 64 63 61 61 61 60 59 60
19 16 17 21 14 12 23 25 24 27 22 21 22 22 22 23 24 26 26 31 37 41 52 60 63 64 64 64 64 63 63 62 62 62 63 65 64 64 64 65 63 64 63 62 61 61 59 58 59
24 18 18 21 13 10 27 22 24 26 27 25 22 21 22 24 27 30 34 39 41 45 49 53 58 60 60 63 63 62 61 61 62 62 62 63 64 64 64 63 63 63 63 62 61 60 59 58 57
27 25 19 22 12 10 16 24 28 25 24 26 24 21 22 23 28 40 43 45 45 45 45 46 46 48 51 52 55 61 61 61 61 61 61 62 63 63 63 63 63 62 62 61 60 59 58 58 56
31 23 23 17 13 10 14 25 23 21 22 23 22 21 22 39 42 43 43 43 43 44 44 44 43 44 46 49 50 52 56 59 60 60 60 60 62 63 63 63 62 62 61 60 59 59 58 58 57
27 20 15 12 14 18 24 28 25 23 20 21 22 24 30 39 41 42 42 43 43 42 43 43 43 43 44 44 45 48 48 50 58 60 60 60 60 60 62 63 62 61 61 60 59 59 58 58 57
27 19 11 12 16 18 25 22 20 21 22 22 25 36 41 40 41 41 42 43 43 42 42 42 42 41 42 42 42 43 45 47 51 58 60 60 60 60 61 62 62 61 60 60 59 58 58 58 57
18 14 14 18 25 16 18 16 16 31 32 29 38 39 40 41 41 42 42 42 41 41 41 41 40 40 40 40 41 42 42 44 48 51 59 60 60 59 60 61 61 60 60 59 59 58 57 57 57
28 21 22 24 19 14 23 21 29 38 40 40 39 39 39 39 39 39 38 39 39 40 39 39 39 38 39 39 39 40 40 42 45 48 51 60 60 60 60 61 61 60 59 58 58 58 57 57 56
27 21 28 27 27 23 21 28 38 39 41 39 39 38 38 37 37 37 37 37 37 37 37 37 37 37 37 37 38 38 39 40 44 46 51 58 60 60 60 61 61 60 59 58 58 57 57 56 56
29 30 29 21 25 28 25 27 40 39 40 40 38 38 38 37 35 35 34 34 35 35 35 35 35 36 36 37 37 38 38 40 42 45 54 58 59 60 60 61 60 59 59 58 57 56 56 56 55

GFSSGP_sfc_30mbdewp_123.txt.gz
Dewpoint
46 43 42 37 24 22 9 9 17 7 8 12 15 21 27 39 41 35 62 63 65 67 69 71 71 71 71 71 70 71 71 71 71 71 71 71 72 72 72 72 72 71 70 70 70 70 69 69 69
42 40 34 32 19 7 -5 18 9 10 12 14 19 30 35 38 52 59 60 65 67 68 69 70 71 71 71 71 71 71 71 71 71 71 71 71 72 72 72 72 72 71 71 70 69 69 69 69 68
40 39 29 28 24 2 -9 12 12 13 15 15 15 18 38 43 56 60 63 66 68 68 69 69 70 70 71 71 71 71 71 71 71 71 71 71 71 71 71 71 71 71 71 70 69 69 69 68 68
28 36 36 29 18 22 13 14 15 17 16 15 16 14 40 51 56 59 65 67 67 68 68 69 69 69 70 71 71 71 71 70 70 70 71 70 70 70 70 70 70 71 71 70 69 69 68 67 67
40 39 23 29 25 23 22 21 19 18 16 14 16 14 35 53 59 64 64 65 65 67 68 68 68 69 70 71 71 71 71 70 70 71 71 71 70 69 69 69 69 69 70 71 70 68 67 67 67
34 37 31 22 21 22 22 21 18 18 18 17 17 17 41 55 60 62 63 64 66 66 67 68 68 69 70 71 71 71 70 70 70 70 70 70 70 69 68 69 69 69 70 69 68 67 67 66 66
35 34 29 29 25 23 23 23 20 19 19 18 19 19 43 57 59 60 62 64 65 66 67 68 69 70 70 70 70 70 70 70 70 70 70 70 70 69 68 69 69 69 69 68 67 67 66 66 66
39 36 32 30 27 26 27 25 21 21 20 19 21 35 43 53 59 63 64 64 64 66 66 67 68 69 69 70 69 68 69 70 70 70 69 69 69 69 68 68 69 68 68 68 67 66 66 66 66
31 31 27 28 28 27 28 27 28 27 26 24 19 27 43 57 63 63 62 62 63 64 65 66 67 67 68 68 69 69 69 69 69 69 69 69 68 69 68 68 68 68 67 67 67 66 66 66 66
20 22 25 31 31 31 31 31 29 27 26 25 26 32 50 61 61 59 59 58 60 62 64 66 66 66 67 67 69 69 69 69 69 69 69 69 68 68 68 68 68 67 66 66 65 65 65 65 64
15 16 19 27 31 31 31 30 30 28 27 28 26 24 50 59 60 58 58 58 57 61 63 65 66 66 67 67 67 67 67 67 68 68 68 68 68 67 67 67 67 67 66 65 65 64 64 64 63
12 10 11 16 24 25 25 28 28 28 27 27 26 26 48 56 59 59 59 60 60 60 62 64 65 65 66 66 65 65 65 66 66 67 66 67 67 67 66 66 66 66 65 64 64 63 63 63 63
14 17 21 20 19 14 14 17 22 24 26 28 28 27 37 53 57 58 59 61 63 62 62 64 65 65 65 65 66 65 65 65 65 66 67 67 66 66 66 65 65 65 64 64 63 62 62 62 62
15 16 15 14 13 10 15 17 17 19 21 25 26 26 26 46 54 56 57 59 63 63 63 63 64 64 65 65 64 65 65 66 66 66 67 67 67 66 66 65 64 64 63 63 63 62 61 61 61
18 16 15 13 10 11 11 15 17 16 18 21 26 26 26 30 44 51 55 57 60 62 64 65 64 64 64 64 64 64 64 65 65 65 66 67 66 66 65 65 64 64 63 62 62 61 61 60 61
19 17 8 5 8 10 13 8 11 21 19 19 21 25 26 25 28 39 46 54 58 60 61 65 65 64 64 64 65 64 64 65 64 65 65 66 66 66 65 64 64 64 63 62 62 61 60 60 60
19 8 10 8 9 9 8 6 9 15 21 21 21 22 25 26 25 26 34 47 54 59 60 62 65 65 65 65 65 65 65 65 65 65 65 65 66 66 65 64 64 63 63 62 61 61 60 60 60
6 8 9 10 10 11 11 11 13 13 17 21 21 22 24 26 26 25 26 32 41 54 59 60 64 65 65 65 64 64 65 65 66 65 65 65 65 66 65 65 64 63 62 62 62 61 61 61 60
15 16 15 17 18 18 15 13 12 14 15 14 22 23 25 25 26 26 26 27 28 33 52 59 60 63 65 64 63 63 64 64 65 66 65 65 66 65 65 65 64 63 62 61 61 60 60 60 61
21 18 17 17 16 18 19 18 15 13 15 14 18 22 25 26 26 27 27 27 27 28 32 54 58 61 64 64 63 63 64 64 65 65 66 65 66 65 65 64 64 64 63 61 61 61 60 60 61
22 22 21 20 21 18 19 18 14 13 17 19 17 22 23 25 26 26 27 27 28 30 34 45 55 59 62 63 63 62 62 62 63 64 64 65 65 65 65 64 64 63 63 61 61 61 60 58 60
20 22 24 30 26 18 16 11 16 19 24 26 19 20 22 22 24 26 37 42 45 50 55 58 59 60 62 63 63 62 61 61 62 62 64 64 65 65 65 64 64 64 63 62 62 62 61 59 58
26 27 31 26 21 17 18 17 17 22 25 25 25 21 23 24 30 42 44 44 45 45 46 47 49 50 53 56 59 60 60 61 61 61 62 62 64 64 64 64 64 63 63 63 62 61 60 59 58
32 30 28 24 22 16 16 17 16 21 23 25 26 24 41 42 43 43 43 42 42 42 43 43 43 44 45 47 47 48 49 51 57 60 61 61 62 63 63 64 63 63 62 62 62 61 60 59 58
30 24 17 15 17 13 15 14 15 20 26 27 28 41 41 42 42 42 41 41 41 41 41 42 42 42 43 43 43 44 45 46 48 53 59 60 60 61 62 63 63 62 62 61 61 60 60 59 58
30 21 15 9 16 17 22 17 22 33 27 37 39 41 41 41 41 41 41 41 40 39 39 40 40 39 40 40 41 42 42 43 46 51 55 60 60 61 62 62 62 62 61 60 60 60 59 58 58
27 27 23 16 23 22 24 23 33 38 38 40 40 40 38 38 39 38 38 38 38 37 38 38 38 38 38 39 39 40 40 40 42 44 47 49 59 61 61 61 62 62 61 60 60 59 58 58 58
32 28 20 21 18 16 20 26 30 36 35 37 36 36 36 36 36 36 36 36 36 36 36 36 36 36 37 37 38 38 39 39 40 42 45 48 51 59 60 60 61 61 61 60 59 59 58 58 57
31 30 30 29 28 22 21 26 37 37 37 36 35 35 34 34 33 34 34 34 34 34 34 34 35 35 35 36 37 37 37 38 39 41 43 46 49 52 59 59 60 60 60 59 59 59 58 57 57
32 32 31 27 24 27 27 27 39 38 37 37 36 35 34 34 33 32 33 33 32 33 33 33 34 34 35 35 35 36 37 38 39 40 42 45 47 54 57 59 60 60 59 59 58 58 57 57 56

GFSSGP_sfc_30mbdewp_126.txt.gz
Dewpoint
43 42 41 34 17 20 5 1 17 7 8 13 14 17 25 39 43 40 61 63 64 66 70 70 71 71 71 70 70 70 71 71 71 71 71 72 72 72 72 72 71 71 70 70 70 69 69 69 69
41 39 33 32 10 -6 -13 14 6 11 12 16 15 27 36 38 49 58 60 64 65 68 69 70 71 71 71 70 71 70 71 71 71 71 71 72 72 72 72 72 71 71 70 69 69 69 69 69 69
38 39 25 27 18 -11 -14 5 12 15 17 16 15 18 31 39 53 59 62 66 66 68 69 70 70 70 71 70 71 71 71 70 71 71 71 72 72 72 72 71 71 71 70 69 69 68 69 68 68
32 34 34 22 13 16 4 10 15 15 17 16 15 12 19 50 53 61 66 67 66 68 69 70 70 70 70 70 71 71 70 70 70 71 71 71 72 72 71 71 71 71 70 69 68 68 68 67 68
41 37 15 25 21 17 23 22 21 18 19 17 18 15 17 43 61 64 66 66 65 67 68 69 70 70 70 70 71 71 70 70 70 70 71 71 71 71 70 70 71 71 71 70 69 68 67 67 67
26 37 27 17 21 20 22 23 22 19 19 19 18 18 23 54 59 64 65 65 66 67 67 68 69 70 70 71 71 70 70 69 70 70 70 70 70 70 70 69 70 71 71 70 68 67 67 66 67
27 33 26 28 25 24 22 24 22 22 21 20 20 22 29 51 60 63 64 65 66 67 67 67 68 69 69 70 71 70 69 69 69 70 70 70 69 68 69 69 69 69 69 68 67 67 66 66 66
38 34 30 29 25 25 26 26 24 25 24 23 21 24 24 49 60 63 63 64 65 66 66 67 68 68 69 70 70 69 69 69 69 69 69 69 68 68 68 69 69 69 68 67 67 66 66 66 66
35 29 28 27 26 26 27 27 29 29 27 28 24 25 33 53 63 61 61 62 63 64 65 66 66 67 67 68 69 69 69 69 69 69 69 68 68 68 68 68 68 68 68 67 66 65 66 65 65
20 21 20 28 29 28 30 31 31 30 30 29 29 29 37 61 60 58 57 57 61 63 64 64 65 66 66 67 68 68 69 69 69 69 69 68 68 68 68 68 68 67 67 67 66 65 65 65 65
15 13 16 19 22 29 28 26 29 28 27 29 29 29 39 59 59 57 57 55 56 61 63 63 64 65 65 65 66 66 67 67 67 68 68 68 67 67 67 67 67 67 66 66 66 65 65 64 64
19 16 16 19 18 15 15 18 16 16 19 27 29 29 31 48 59 57 56 55 56 59 62 63 64 64 64 65 65 65 66 66 67 67 67 67 67 66 66 66 66 66 65 65 64 63 63 63 63
13 15 16 16 15 14 13 12 14 16 18 19 24 27 28 36 53 59 57 57 57 58 61 63 64 64 64 65 65 65 65 65 66 66 67 67 65 66 66 65 65 65 65 64 63 62 62 62 62
16 18 18 17 16 14 11 8 9 10 17 18 19 21 25 28 38 55 59 58 60 59 60 63 64 64 64 64 64 64 64 64 64 65 66 66 66 65 66 65 65 64 64 64 63 62 61 61 62
19 16 14 9 9 9 11 3 8 10 12 15 17 17 20 26 30 45 56 58 61 62 60 62 63 64 64 64 64 64 64 64 63 64 65 65 65 65 64 64 64 64 63 63 62 61 61 60 61
17 16 9 6 6 6 5 -2 0 9 14 15 16 19 19 22 26 35 53 57 59 62 62 62 62 63 63 64 64 64 64 64 63 64 64 64 64 65 64 64 64 63 63 62 62 61 60 60 60
18 5 9 9 9 8 7 4 5 12 13 13 14 13 18 21 24 27 44 55 57 61 62 64 62 62 63 63 63 63 63 64 64 64 65 64 64 65 65 64 63 63 62 62 61 60 60 59 59
6 9 11 11 12 13 14 14 16 17 13 12 12 14 15 18 22 26 27 43 53 58 60 63 64 63 62 63 64 64 64 64 64 64 64 65 65 65 64 64 63 63 63 62 61 61 60 60 60
16 15 15 16 17 17 17 18 18 19 18 17 15 12 14 15 20 25 26 28 38 53 58 61 64 64 64 63 63 63 62 63 64 64 64 64 64 65 65 64 63 63 62 62 62 61 60 60 61
19 19 18 19 20 20 19 19 21 21 19 19 18 15 12 15 16 24 26 27 29 42 56 59 61 64 64 64 63 62 63 64 64 65 65 64 64 64 65 65 63 63 62 62 61 61 60 60 61
21 21 19 19 21 22 23 24 24 22 20 19 18 16 13 14 17 25 27 27 27 30 41 55 59 61 64 64 64 62 63 63 63 64 64 65 65 65 64 64 64 63 63 62 61 62 61 59 60
19 20 21 21 23 23 23 16 17 17 16 15 16 14 14 21 19 24 28 40 42 45 40 49 58 60 62 63 63 62 62 61 62 63 64 65 65 65 65 64 64 63 63 62 61 62 61 60 58
22 24 28 27 28 24 18 19 13 15 15 17 18 21 21 23 19 37 44 44 45 48 49 51 53 54 58 62 62 61 61 61 61 62 62 62 64 65 65 64 64 64 64 63 62 61 61 60 59
25 29 29 29 25 18 14 15 12 13 14 23 34 40 40 39 41 42 42 42 42 42 43 43 44 45 47 50 52 55 57 59 60 59 54 55 59 63 64 64 64 64 64 63 62 62 61 61 60
29 24 16 10 13 10 16 22 15 19 24 22 31 41 40 40 40 39 39 39 39 40 41 41 41 41 43 44 45 46 46 48 52 57 58 57 60 61 63 63 64 64 63 63 62 62 61 61 60
27 29 19 10 9 13 19 20 24 38 41 40 40 39 38 37 37 37 37 37 38 38 38 39 39 39 40 41 41 41 42 42 44 46 49 56 59 60 61 62 63 63 63 62 62 61 61 61 60
30 27 26 19 20 19 20 25 34 37 37 38 37 36 36 36 36 36 36 36 36 36 36 37 37 37 38 38 39 38 39 39 40 40 43 45 49 53 60 61 62 63 62 61 61 60 60 60 59
32 32 24 21 16 17 22 26 24 32 32 34 33 34 35 35 35 35 35 34 35 35 35 35 35 35 35 36 37 37 38 38 39 40 41 43 46 48 50 58 60 61 61 61 60 59 59 59 58
30 30 30 31 27 22 19 24 30 31 34 33 33 33 34 34 33 33 33 33 34 34 34 34 33 33 33 34 35 36 37 38 38 39 40 42 44 46 48 51 56 59 59 60 59 58 58 58 58
32 32 31 25 24 27 26 22 31 31 31 32 33 34 34 33 33 33 32 31 31 32 32 32 32 32 33 33 33 34 36 36 37 37 38 40 42 44 46 51 54 56 58 59 59 58 58 57 57

GFSSGP_sfc_30mbdewp_129.txt.gz
Dewpoint
41 41 40 32 8 15 1 -3 14 9 12 15 16 17 20 34 38 27 61 62 64 66 68 70 71 71 70 70 70 71 72 72 72 72 72 72 72 72 72 71 71 71 70 69 69 69 69 69 69
41 37 35 30 -1 -14 -15 8 6 11 10 17 17 25 30 35 44 50 60 63 65 67 68 69 71 71 71 70 70 71 72 72 72 72 72 72 72 72 72 71 71 71 71 70 69 69 69 70 69
39 36 25 24 9 -10 -14 -3 9 14 17 18 15 16 21 38 48 57 63 64 66 67 68 69 70 70 71 70 70 71 71 71 71 71 72 72 72 72 72 71 71 71 70 70 69 69 69 69 69
34 33 32 17 9 9 -2 6 15 16 17 17 17 13 20 36 51 60 65 65 66 67 67 70 70 70 70 70 70 71 70 70 71 71 71 72 72 72 71 71 71 71 70 69 69 69 68 68 68
41 31 15 20 16 17 22 22 21 16 20 19 18 16 21 36 62 65 65 65 66 67 68 69 70 70 70 71 70 70 70 70 70 71 71 72 72 72 71 71 71 70 70 69 69 68 68 67 67
23 35 20 15 16 19 19 23 22 20 20 21 20 20 24 54 59 64 66 65 66 67 69 69 69 70 70 71 70 70 69 69 70 71 71 71 71 71 70 71 71 70 70 69 68 67 67 67 66
22 29 22 25 24 23 22 25 23 24 23 22 21 22 26 45 57 64 65 66 67 67 68 69 69 69 70 70 70 69 69 69 69 70 70 71 70 70 70 70 70 70 69 68 67 67 67 67 65
36 32 28 27 23 23 26 27 26 25 25 25 24 23 25 34 59 63 64 65 66 67 67 68 69 70 69 70 70 69 68 68 69 69 69 69 69 69 69 69 70 70 68 67 66 66 66 66 66
36 22 24 23 24 23 29 28 30 32 31 30 29 28 29 49 61 61 62 63 65 65 66 67 68 68 69 69 69 69 68 68 68 68 69 68 68 68 68 68 69 69 68 66 66 66 66 66 65
19 21 18 25 28 27 25 25 25 27 28 28 30 32 32 55 59 57 59 60 62 63 65 65 66 67 67 67 68 69 68 67 68 68 68 68 68 67 67 68 68 68 67 66 66 65 65 65 65
17 11 17 17 21 16 16 16 17 17 18 26 28 28 29 30 36 55 57 58 59 61 63 65 65 66 65 65 67 68 68 68 68 68 68 68 68 68 67 68 68 68 67 66 64 64 64 65 65
17 18 16 18 17 15 13 13 13 13 14 17 18 20 22 24 26 39 53 56 56 58 62 64 64 65 65 65 65 66 66 67 67 67 68 68 67 68 67 66 68 67 66 66 65 65 64 64 65
14 14 17 17 17 15 13 10 9 6 9 11 10 15 19 20 23 29 46 52 55 56 60 62 63 64 64 65 65 65 65 66 66 66 67 67 66 66 67 67 67 67 66 65 65 64 63 63 63
17 17 16 16 15 14 12 10 9 4 6 8 11 11 14 19 24 26 31 49 55 55 57 62 62 63 63 64 65 64 65 66 66 66 66 67 66 66 66 66 66 67 66 66 65 64 63 63 63
19 15 15 11 11 10 9 3 3 7 12 13 13 14 14 16 20 21 26 39 53 56 56 61 62 62 63 63 64 64 64 64 65 65 66 66 66 65 65 65 66 66 67 66 65 64 63 63 63
17 16 7 6 9 8 7 -0 5 9 12 12 13 16 14 14 14 19 26 29 43 55 57 59 62 63 63 63 63 63 64 64 64 64 64 66 66 65 65 64 65 66 67 66 65 64 63 62 62
15 3 9 9 10 10 9 5 8 10 14 17 19 18 17 17 15 14 17 27 31 50 59 58 61 62 63 64 63 63 63 63 63 63 63 65 65 65 65 64 64 66 65 65 65 64 63 62 62
5 8 9 10 11 13 13 14 16 18 19 20 20 21 19 18 17 15 15 18 28 45 60 61 60 61 63 63 63 63 62 62 63 62 63 64 64 64 64 65 65 65 65 64 64 63 63 62 62
17 15 13 14 16 17 18 18 19 21 21 21 21 21 20 20 20 18 16 20 27 40 59 62 61 60 62 62 62 61 61 62 63 63 64 65 64 63 64 64 65 65 64 63 63 63 62 62 62
19 18 17 18 20 22 21 20 21 22 22 22 23 24 24 22 21 21 19 18 26 32 55 61 63 62 61 60 61 61 62 62 62 63 63 64 64 65 65 64 64 64 63 63 62 62 61 61 61
20 20 20 20 22 25 22 18 12 14 16 16 17 22 23 22 22 21 20 17 23 34 41 58 62 63 62 61 61 61 63 63 63 62 62 63 64 64 64 64 64 64 64 62 62 62 62 60 61
20 21 21 21 25 21 24 18 14 11 14 16 15 17 19 19 18 20 20 16 25 34 39 54 60 62 64 63 63 62 61 60 61 61 63 63 64 64 64 65 64 64 64 63 63 63 63 62 59
22 23 24 25 26 26 18 18 11 15 16 18 20 26 38 38 23 18 17 19 47 50 45 53 60 62 64 64 64 63 62 63 63 63 63 64 64 65 64 64 64 64 64 64 63 63 63 63 61
25 26 28 27 27 17 17 16 13 19 32 34 38 39 39 39 31 38 43 44 44 45 48 50 51 50 52 58 62 63 63 62 62 63 62 62 63 60 58 58 57 62 64 64 64 63 63 63 62
30 26 18 13 15 7 14 16 16 34 35 34 35 35 37 37 37 38 38 39 40 41 42 43 45 44 44 45 46 48 51 55 58 60 61 60 59 59 57 57 59 62 64 64 64 63 63 63 62
24 28 21 15 12 14 18 16 26 31 35 33 36 33 36 35 36 35 36 36 37 38 38 39 39 39 40 41 42 42 43 45 46 48 49 55 59 60 61 61 61 63 64 64 63 63 62 63 62
32 28 29 25 21 19 18 26 32 27 32 32 32 32 32 34 35 35 35 35 36 35 36 36 36 37 38 38 39 40 41 41 42 43 44 45 47 48 51 60 62 62 63 63 63 62 61 61 62
32 33 26 26 17 15 18 24 21 26 27 30 30 30 31 33 33 34 34 34 35 34 34 35 34 34 35 36 37 37 38 39 40 41 41 42 44 45 46 49 52 59 61 62 62 61 61 60 60
28 24 28 29 27 21 19 21 28 27 28 28 29 30 30 31 32 32 32 33 33 34 34 33 33 33 34 34 34 36 36 36 37 38 39 40 41 43 44 46 48 50 55 60 61 60 60 59 59
25 26 29 25 23 26 25 20 31 30 30 30 29 30 31 31 31 31 31 31 32 32 33 33 32 32 32 33 34 34 34 35 35 36 37 38 39 41 42 44 46 48 52 54 58 60 60 59 58